Wetterdaten: Sonntag, 16.10.2022
Datum Zeit Temp. Aussen Temp. o. S. Temp +5cm Feuchte Auss Luftdruck Regen Sonnenschein Regendauer Solar Windben Empfang
16.10.2022 00:00 13,7 C 12,8 C 10,6 C 97 % 1011,1 hPa 0,0 l/m 0 min 0 min 0 W/m 3,2 km/h (1 Bft) 95,74 %
16.10.2022 00:02 13,7 C 12,8 C 10,6 C 97 % 1011,0 hPa 0,0 l/m 0 min 0 min 0 W/m 6,4 km/h (2 Bft) 95,56 %
16.10.2022 00:04 13,7 C 12,8 C 10,6 C 97 % 1011,0 hPa 0,0 l/m 0 min 0 min 0 W/m 6,4 km/h (2 Bft) 97,87 %
16.10.2022 00:08 13,7 C 12,8 C 10,6 C 97 % 1011,0 hPa 0,0 l/m 0 min 0 min 0 W/m 3,2 km/h (1 Bft) 97,56 %
16.10.2022 00:12 13,6 C 12,8 C 10,6 C 96 % 1011,0 hPa 0,0 l/m 0 min 0 min 0 W/m 3,2 km/h (1 Bft) 97,87 %
16.10.2022 00:14 13,6 C 12,8 C 10,6 C 96 % 1011,1 hPa 0,0 l/m 0 min 0 min 0 W/m 3,2 km/h (1 Bft) 97,83 %
16.10.2022 00:16 13,6 C 12,8 C 10,6 C 96 % 1011,1 hPa 0,0 l/m 0 min 0 min 0 W/m 3,2 km/h (1 Bft) 97,87 %
16.10.2022 00:18 13,6 C 12,8 C 10,6 C 96 % 1011,1 hPa 0,0 l/m 0 min 0 min 0 W/m 3,2 km/h (1 Bft) 93,62 %
16.10.2022 00:20 13,6 C 12,8 C 10,6 C 96 % 1011,1 hPa 0,0 l/m 0 min 0 min 0 W/m 3,2 km/h (1 Bft) 95,74 %
16.10.2022 00:22 13,6 C 12,8 C 10,6 C 96 % 1011,1 hPa 0,0 l/m 0 min 0 min 0 W/m 3,2 km/h (1 Bft) 95,74 %
16.10.2022 00:24 13,6 C 12,8 C 10,6 C 96 % 1011,1 hPa 0,0 l/m 0 min 0 min 0 W/m 3,2 km/h (1 Bft) 95,74 %
16.10.2022 00:26 13,6 C 12,8 C 10,6 C 96 % 1011,1 hPa 0,0 l/m 0 min 0 min 0 W/m 3,2 km/h (1 Bft) 93,48 %
16.10.2022 00:28 13,6 C 12,8 C 10,6 C 96 % 1011,1 hPa 0,0 l/m 0 min 0 min 0 W/m 3,2 km/h (1 Bft) 95,74 %
16.10.2022 00:30 13,6 C 12,8 C 10,6 C 96 % 1011,1 hPa 0,0 l/m 0 min 0 min 0 W/m 3,2 km/h (1 Bft) 97,87 %
16.10.2022 00:32 13,5 C 12,8 C 10,6 C 96 % 1011,0 hPa 0,0 l/m 0 min 0 min 0 W/m 3,2 km/h (1 Bft) 95,74 %
16.10.2022 00:34 13,5 C 12,8 C 10,0 C 97 % 1011,0 hPa 0,0 l/m 0 min 0 min 0 W/m 3,2 km/h (1 Bft) 93,62 %
16.10.2022 00:36 13,5 C 12,8 C 10,0 C 97 % 1011,2 hPa 0,0 l/m 0 min 0 min 0 W/m 3,2 km/h (1 Bft) 98,28 %
16.10.2022 00:38 13,5 C 12,8 C 10,0 C 97 % 1011,2 hPa 0,0 l/m 0 min 0 min 0 W/m 3,2 km/h (1 Bft) 97,14 %
16.10.2022 00:40 13,4 C 12,8 C 10,0 C 97 % 1011,2 hPa 0,0 l/m 0 min 0 min 0 W/m 3,2 km/h (1 Bft) 97,87 %
16.10.2022 00:42 13,4 C 12,8 C 10,0 C 97 % 1011,2 hPa 0,0 l/m 0 min 0 min 0 W/m 3,2 km/h (1 Bft) 97,87 %
16.10.2022 00:44 13,4 C 12,8 C 10,0 C 97 % 1011,2 hPa 0,0 l/m 0 min 0 min 0 W/m 3,2 km/h (1 Bft) 97,87 %
16.10.2022 00:46 13,4 C 12,2 C 10,0 C 97 % 1011,2 hPa 0,0 l/m 0 min 0 min 0 W/m 3,2 km/h (1 Bft) 100,00 %
16.10.2022 00:48 13,4 C 12,8 C 10,0 C 97 % 1011,2 hPa 0,0 l/m 0 min 0 min 0 W/m 3,2 km/h (1 Bft) 97,87 %
16.10.2022 00:50 13,4 C 12,8 C 10,0 C 97 % 1011,1 hPa 0,0 l/m 0 min 0 min 0 W/m 3,2 km/h (1 Bft) 97,83 %
16.10.2022 00:52 13,3 C 12,8 C 10,0 C 97 % 1011,2 hPa 0,0 l/m 0 min 0 min 0 W/m 3,2 km/h (1 Bft) 95,74 %
16.10.2022 00:54 13,3 C 12,8 C 10,0 C 97 % 1011,2 hPa 0,0 l/m 0 min 0 min 0 W/m 3,2 km/h (1 Bft) 95,74 %
16.10.2022 00:56 13,3 C 12,8 C 10,0 C 97 % 1011,2 hPa 0,0 l/m 0 min 0 min 0 W/m 0,0 km/h (0 Bft) 97,87 %
16.10.2022 00:58 13,3 C 12,8 C 10,0 C 97 % 1011,2 hPa 0,0 l/m 0 min 0 min 0 W/m 0,0 km/h (0 Bft) 97,87 %
16.10.2022 01:00 13,3 C 12,8 C 10,6 C 97 % 1011,2 hPa 0,0 l/m 0 min 0 min 0 W/m 0,0 km/h (0 Bft) 95,74 %
16.10.2022 01:02 13,3 C 12,8 C 10,6 C 97 % 1011,2 hPa 0,0 l/m 0 min 0 min 0 W/m 3,2 km/h (1 Bft) 97,83 %
16.10.2022 01:04 13,3 C 12,2 C 10,6 C 96 % 1011,2 hPa 0,0 l/m 0 min 0 min 0 W/m 3,2 km/h (1 Bft) 97,87 %
16.10.2022 01:06 13,3 C 12,2 C 10,6 C 96 % 1011,2 hPa 0,0 l/m 0 min 0 min 0 W/m 3,2 km/h (1 Bft) 96,61 %
16.10.2022 01:08 13,3 C 12,2 C 10,6 C 96 % 1011,2 hPa 0,0 l/m 0 min 0 min 0 W/m 3,2 km/h (1 Bft) 100,00 %
16.10.2022 01:10 13,3 C 12,2 C 10,6 C 96 % 1011,2 hPa 0,0 l/m 0 min 0 min 0 W/m 3,2 km/h (1 Bft) 95,74 %
16.10.2022 01:12 13,2 C 12,8 C 10,6 C 97 % 1011,3 hPa 0,0 l/m 0 min 0 min 0 W/m 3,2 km/h (1 Bft) 95,74 %
16.10.2022 01:14 13,2 C 12,2 C 10,6 C 97 % 1011,3 hPa 0,0 l/m 0 min 0 min 0 W/m 6,4 km/h (2 Bft) 100,00 %
16.10.2022 01:16 13,2 C 12,2 C 10,6 C 97 % 1011,3 hPa 0,0 l/m 0 min 0 min 0 W/m 3,2 km/h (1 Bft) 100,00 %
16.10.2022 01:18 13,2 C 12,2 C 10,6 C 97 % 1011,3 hPa 0,0 l/m 0 min 0 min 0 W/m 3,2 km/h (1 Bft) 97,87 %
16.10.2022 01:20 13,2 C 12,2 C 10,6 C 97 % 1011,2 hPa 0,0 l/m 0 min 0 min 0 W/m 3,2 km/h (1 Bft) 95,74 %
16.10.2022 01:22 13,2 C 12,2 C 10,6 C 97 % 1011,2 hPa 0,0 l/m 0 min 0 min 0 W/m 6,4 km/h (2 Bft) 97,87 %
16.10.2022 01:24 13,2 C 12,2 C 10,6 C 97 % 1011,2 hPa 0,0 l/m 0 min 0 min 0 W/m 3,2 km/h (1 Bft) 95,65 %
16.10.2022 01:26 13,2 C 12,2 C 10,6 C 97 % 1011,3 hPa 0,0 l/m 0 min 0 min 0 W/m 3,2 km/h (1 Bft) 97,87 %
16.10.2022 01:28 13,2 C 12,2 C 10,6 C 97 % 1011,3 hPa 0,0 l/m 0 min 0 min 0 W/m 3,2 km/h (1 Bft) 95,74 %
16.10.2022 01:30 13,2 C 12,2 C 10,6 C 97 % 1011,3 hPa 0,0 l/m 0 min 0 min 0 W/m 3,2 km/h (1 Bft) 95,74 %
16.10.2022 01:32 13,1 C 12,2 C 10,0 C 97 % 1011,3 hPa 0,0 l/m 0 min 0 min 0 W/m 3,2 km/h (1 Bft) 97,87 %
16.10.2022 01:34 13,1 C 12,2 C 10,0 C 97 % 1011,3 hPa 0,0 l/m 0 min 0 min 0 W/m 6,4 km/h (2 Bft) 97,87 %
16.10.2022 01:36 13,1 C 12,2 C 10,0 C 97 % 1011,2 hPa 0,0 l/m 0 min 0 min 0 W/m 3,2 km/h (1 Bft) 93,10 %
16.10.2022 01:38 13,1 C 12,2 C 10,6 C 97 % 1011,2 hPa 0,0 l/m 0 min 0 min 0 W/m 3,2 km/h (1 Bft) 97,14 %
16.10.2022 01:40 13,1 C 12,2 C 10,6 C 97 % 1011,2 hPa 0,0 l/m 0 min 0 min 0 W/m 9,7 km/h (2 Bft) 97,87 %
16.10.2022 01:42 13,1 C 12,2 C 10,6 C 97 % 1011,3 hPa 0,0 l/m 0 min 0 min 0 W/m 6,4 km/h (2 Bft) 95,74 %
16.10.2022 01:44 13,1 C 12,2 C 10,6 C 97 % 1011,3 hPa 0,0 l/m 0 min 0 min 0 W/m 6,4 km/h (2 Bft) 97,87 %
16.10.2022 01:46 13,1 C 12,2 C 10,6 C 97 % 1011,4 hPa 0,0 l/m 0 min 0 min 0 W/m 6,4 km/h (2 Bft) 97,87 %
16.10.2022 01:48 13,1 C 12,2 C 10,6 C 97 % 1011,2 hPa 0,0 l/m 0 min 0 min 0 W/m 6,4 km/h (2 Bft) 95,65 %
16.10.2022 01:50 13,1 C 12,2 C 10,0 C 97 % 1011,2 hPa 0,0 l/m 0 min 0 min 0 W/m 3,2 km/h (1 Bft) 97,87 %
16.10.2022 01:52 13,1 C 12,2 C 10,0 C 97 % 1011,2 hPa 0,0 l/m 0 min 0 min 0 W/m 3,2 km/h (1 Bft) 100,00 %
16.10.2022 01:54 13,1 C 12,2 C 10,0 C 97 % 1011,3 hPa 0,0 l/m 0 min 0 min 0 W/m 3,2 km/h (1 Bft) 97,87 %
16.10.2022 01:56 13,1 C 12,2 C 10,0 C 97 % 1011,4 hPa 0,0 l/m 0 min 0 min 0 W/m 3,2 km/h (1 Bft) 97,87 %
16.10.2022 01:58 13,1 C 12,2 C 10,0 C 97 % 1011,4 hPa 0,0 l/m 0 min 0 min 0 W/m 3,2 km/h (1 Bft) 97,87 %
16.10.2022 02:00 13,1 C 12,2 C 10,0 C 97 % 1011,4 hPa 0,0 l/m 0 min 0 min 0 W/m 6,4 km/h (2 Bft) 100,00 %
16.10.2022 02:02 13,1 C 12,2 C 10,0 C 97 % 1011,4 hPa 0,0 l/m 0 min 0 min 0 W/m 3,2 km/h (1 Bft) 100,00 %
16.10.2022 02:04 13,1 C 12,2 C 10,0 C 97 % 1011,3 hPa 0,0 l/m 0 min 0 min 0 W/m 3,2 km/h (1 Bft) 100,00 %
16.10.2022 02:06 13,1 C 12,2 C 10,0 C 97 % 1011,4 hPa 0,0 l/m 0 min 0 min 0 W/m 9,7 km/h (2 Bft) 98,31 %
16.10.2022 02:08 13,1 C 12,2 C 10,6 C 97 % 1011,4 hPa 0,0 l/m 0 min 0 min 0 W/m 6,4 km/h (2 Bft) 97,14 %
16.10.2022 02:10 13,1 C 12,2 C 10,6 C 97 % 1011,4 hPa 0,0 l/m 0 min 0 min 0 W/m 6,4 km/h (2 Bft) 98,15 %
16.10.2022 02:12 13,1 C 12,2 C 10,6 C 97 % 1011,4 hPa 0,0 l/m 0 min 0 min 0 W/m 9,7 km/h (2 Bft) 97,87 %
16.10.2022 02:14 13,1 C 12,2 C 10,6 C 97 % 1011,4 hPa 0,0 l/m 0 min 0 min 0 W/m 16,1 km/h (3 Bft) 97,83 %
16.10.2022 02:16 13,1 C 12,2 C 10,6 C 97 % 1011,5 hPa 0,0 l/m 0 min 0 min 0 W/m 12,9 km/h (3 Bft) 97,87 %
16.10.2022 02:18 13,1 C 12,2 C 10,6 C 97 % 1011,5 hPa 0,0 l/m 0 min 0 min 0 W/m 9,7 km/h (2 Bft) 97,87 %
16.10.2022 02:20 13,1 C 12,2 C 10,6 C 97 % 1011,5 hPa 0,0 l/m 0 min 0 min 0 W/m 12,9 km/h (3 Bft) 95,74 %
16.10.2022 02:22 13,1 C 12,2 C 10,6 C 97 % 1011,5 hPa 0,0 l/m 0 min 0 min 0 W/m 12,9 km/h (3 Bft) 97,87 %
16.10.2022 02:24 13,1 C 12,2 C 10,6 C 97 % 1011,5 hPa 0,0 l/m 0 min 0 min 0 W/m 9,7 km/h (2 Bft) 95,74 %
16.10.2022 02:26 13,1 C 12,2 C 10,6 C 97 % 1011,5 hPa 0,0 l/m 0 min 0 min 0 W/m 9,7 km/h (2 Bft) 97,83 %
16.10.2022 02:28 13,1 C 12,2 C 10,6 C 97 % 1011,4 hPa 0,0 l/m 0 min 0 min 0 W/m 6,4 km/h (2 Bft) 93,62 %
16.10.2022 02:30 13,1 C 12,2 C 10,6 C 97 % 1011,4 hPa 0,0 l/m 0 min 0 min 0 W/m 9,7 km/h (2 Bft) 97,87 %
16.10.2022 02:32 13,1 C 12,2 C 10,6 C 97 % 1011,4 hPa 0,0 l/m 0 min 0 min 0 W/m 3,2 km/h (1 Bft) 97,87 %
16.10.2022 02:34 13,1 C 12,2 C 10,6 C 97 % 1011,4 hPa 0,0 l/m 0 min 0 min 0 W/m 9,7 km/h (2 Bft) 97,87 %
16.10.2022 02:36 13,1 C 12,2 C 10,6 C 97 % 1011,4 hPa 0,0 l/m 0 min 0 min 0 W/m 6,4 km/h (2 Bft) 95,74 %
16.10.2022 02:38 13,1 C 12,2 C 10,6 C 97 % 1011,4 hPa 0,0 l/m 0 min 0 min 0 W/m 6,4 km/h (2 Bft) 97,83 %
16.10.2022 02:40 13,1 C 12,2 C 10,0 C 97 % 1011,4 hPa 0,0 l/m 0 min 0 min 0 W/m 3,2 km/h (1 Bft) 95,74 %
16.10.2022 02:42 13,1 C 12,2 C 10,0 C 97 % 1011,4 hPa 0,0 l/m 0 min 0 min 0 W/m 3,2 km/h (1 Bft) 97,87 %
16.10.2022 02:44 13,1 C 12,2 C 10,0 C 97 % 1011,4 hPa 0,0 l/m 0 min 0 min 0 W/m 3,2 km/h (1 Bft) 97,87 %
16.10.2022 02:46 13,1 C 12,2 C 10,0 C 97 % 1011,3 hPa 0,0 l/m 0 min 0 min 0 W/m 0,0 km/h (0 Bft) 97,87 %
16.10.2022 02:48 13,1 C 12,2 C 10,0 C 97 % 1011,3 hPa 0,0 l/m 0 min 0 min 0 W/m 0,0 km/h (0 Bft) 97,83 %
16.10.2022 02:50 13,0 C 12,2 C 10,0 C 97 % 1011,3 hPa 0,0 l/m 0 min 0 min 0 W/m 0,0 km/h (0 Bft) 97,87 %
16.10.2022 02:52 13,0 C 12,2 C 10,0 C 97 % 1011,3 hPa 0,0 l/m 0 min 0 min 0 W/m 0,0 km/h (0 Bft) 100,00 %
16.10.2022 02:54 13,0 C 12,2 C 10,0 C 97 % 1011,3 hPa 0,0 l/m 0 min 0 min 0 W/m 3,2 km/h (1 Bft) 100,00 %
16.10.2022 02:56 13,0 C 12,2 C 10,0 C 97 % 1011,3 hPa 0,0 l/m 0 min 0 min 0 W/m 0,0 km/h (0 Bft) 100,00 %
16.10.2022 02:58 12,9 C 12,2 C 10,0 C 97 % 1011,3 hPa 0,0 l/m 0 min 0 min 0 W/m 3,2 km/h (1 Bft) 100,00 %
16.10.2022 03:00 12,9 C 12,2 C 10,0 C 97 % 1011,2 hPa 0,0 l/m 0 min 0 min 0 W/m 0,0 km/h (0 Bft) 100,00 %
16.10.2022 03:02 12,9 C 12,2 C 10,0 C 97 % 1011,2 hPa 0,0 l/m 0 min 0 min 0 W/m 0,0 km/h (0 Bft) 100,00 %
16.10.2022 03:04 12,9 C 12,2 C 10,0 C 97 % 1011,3 hPa 0,0 l/m 0 min 0 min 0 W/m 3,2 km/h (1 Bft) 97,87 %
16.10.2022 03:06 12,9 C 12,2 C 10,0 C 97 % 1011,2 hPa 0,0 l/m 0 min 0 min 0 W/m 3,2 km/h (1 Bft) 97,87 %
16.10.2022 03:08 12,9 C 12,2 C 10,0 C 97 % 1011,3 hPa 0,0 l/m 0 min 0 min 0 W/m 3,2 km/h (1 Bft) 100,00 %
16.10.2022 03:10 12,9 C 12,2 C 10,0 C 97 % 1011,3 hPa 0,0 l/m 0 min 0 min 0 W/m 0,0 km/h (0 Bft) 97,87 %
16.10.2022 03:12 12,9 C 12,2 C 10,0 C 97 % 1011,4 hPa 0,0 l/m 0 min 0 min 0 W/m 6,4 km/h (2 Bft) 97,83 %
16.10.2022 03:14 12,9 C 12,2 C 10,0 C 97 % 1011,4 hPa 0,0 l/m 0 min 0 min 0 W/m 0,0 km/h (0 Bft) 95,74 %
16.10.2022 03:16 12,9 C 12,2 C 10,0 C 97 % 1011,5 hPa 0,0 l/m 0 min 0 min 0 W/m 6,4 km/h (2 Bft) 97,87 %
16.10.2022 03:18 12,8 C 12,2 C 10,0 C 97 % 1011,5 hPa 0,0 l/m 0 min 0 min 0 W/m 3,2 km/h (1 Bft) 97,87 %
16.10.2022 03:20 12,8 C 12,2 C 10,0 C 97 % 1011,5 hPa 0,0 l/m 0 min 0 min 0 W/m 0,0 km/h (0 Bft) 95,74 %
16.10.2022 03:22 12,8 C 12,2 C 10,0 C 97 % 1011,4 hPa 0,0 l/m 0 min 0 min 0 W/m 3,2 km/h (1 Bft) 97,87 %
16.10.2022 03:24 12,8 C 12,2 C 10,0 C 97 % 1011,4 hPa 0,0 l/m 0 min 0 min 0 W/m 3,2 km/h (1 Bft) 97,83 %
16.10.2022 03:26 12,8 C 12,2 C 10,0 C 97 % 1011,4 hPa 0,0 l/m 0 min 0 min 0 W/m 3,2 km/h (1 Bft) 93,62 %
16.10.2022 03:28 12,8 C 12,2 C 10,0 C 97 % 1011,5 hPa 0,0 l/m 0 min 0 min 0 W/m 3,2 km/h (1 Bft) 93,62 %
16.10.2022 03:30 12,8 C 12,2 C 10,0 C 97 % 1011,4 hPa 0,0 l/m 0 min 0 min 0 W/m 6,4 km/h (2 Bft) 95,74 %
16.10.2022 03:32 12,8 C 12,2 C 10,0 C 97 % 1011,4 hPa 0,0 l/m 0 min 0 min 0 W/m 3,2 km/h (1 Bft) 93,62 %
16.10.2022 03:34 12,8 C 12,2 C 10,0 C 97 % 1011,4 hPa 0,0 l/m 0 min 0 min 0 W/m 3,2 km/h (1 Bft) 95,74 %
16.10.2022 03:36 12,8 C 12,2 C 10,0 C 97 % 1011,4 hPa 0,0 l/m 0 min 0 min 0 W/m 3,2 km/h (1 Bft) 95,65 %
16.10.2022 03:38 12,8 C 12,2 C 10,0 C 97 % 1011,4 hPa 0,0 l/m 0 min 0 min 0 W/m 3,2 km/h (1 Bft) 95,74 %
16.10.2022 03:40 12,8 C 12,2 C 10,0 C 97 % 1011,4 hPa 0,0 l/m 0 min 0 min 0 W/m 3,2 km/h (1 Bft) 95,74 %
16.10.2022 03:42 12,8 C 12,2 C 10,0 C 97 % 1011,4 hPa 0,0 l/m 0 min 0 min 0 W/m 3,2 km/h (1 Bft) 95,74 %
16.10.2022 03:44 12,8 C 12,2 C 10,0 C 97 % 1011,4 hPa 0,0 l/m 0 min 0 min 0 W/m 3,2 km/h (1 Bft) 97,87 %
16.10.2022 03:46 12,8 C 12,2 C 10,0 C 97 % 1011,4 hPa 0,0 l/m 0 min 0 min 0 W/m 3,2 km/h (1 Bft) 97,87 %
16.10.2022 03:48 12,7 C 12,2 C 10,0 C 97 % 1011,4 hPa 0,0 l/m 0 min 0 min 0 W/m 3,2 km/h (1 Bft) 95,65 %
16.10.2022 03:50 12,7 C 12,2 C 10,0 C 97 % 1011,4 hPa 0,0 l/m 0 min 0 min 0 W/m 3,2 km/h (1 Bft) 97,87 %
16.10.2022 03:52 12,7 C 12,2 C 10,0 C 97 % 1011,4 hPa 0,0 l/m 0 min 0 min 0 W/m 3,2 km/h (1 Bft) 95,74 %
16.10.2022 03:54 12,7 C 12,2 C 10,0 C 97 % 1011,4 hPa 0,0 l/m 0 min 0 min 0 W/m 6,4 km/h (2 Bft) 97,87 %
16.10.2022 03:56 12,7 C 12,2 C 10,0 C 97 % 1011,4 hPa 0,0 l/m 0 min 0 min 0 W/m 3,2 km/h (1 Bft) 97,87 %
16.10.2022 03:58 12,7 C 12,2 C 10,0 C 97 % 1011,5 hPa 0,0 l/m 0 min 0 min 0 W/m 3,2 km/h (1 Bft) 97,83 %
16.10.2022 04:00 12,7 C 12,2 C 10,0 C 97 % 1011,5 hPa 0,0 l/m 0 min 0 min 0 W/m 6,4 km/h (2 Bft) 95,74 %
16.10.2022 04:02 12,7 C 12,2 C 10,0 C 97 % 1011,5 hPa 0,0 l/m 0 min 0 min 0 W/m 3,2 km/h (1 Bft) 90,91 %
16.10.2022 04:04 12,7 C 12,2 C 10,0 C 97 % 1011,5 hPa 0,0 l/m 0 min 0 min 0 W/m 6,4 km/h (2 Bft) 100,00 %
16.10.2022 04:06 12,7 C 12,2 C 10,0 C 97 % 1011,5 hPa 0,0 l/m 0 min 0 min 0 W/m 6,4 km/h (2 Bft) 95,74 %
16.10.2022 04:08 12,7 C 12,2 C 10,0 C 97 % 1011,5 hPa 0,0 l/m 0 min 0 min 0 W/m 3,2 km/h (1 Bft) 95,74 %
16.10.2022 04:10 12,7 C 12,2 C 10,0 C 97 % 1011,6 hPa 0,0 l/m 0 min 0 min 0 W/m 6,4 km/h (2 Bft) 97,83 %
16.10.2022 04:12 12,7 C 12,2 C 10,0 C 97 % 1011,6 hPa 0,0 l/m 0 min 0 min 0 W/m 3,2 km/h (1 Bft) 97,87 %
16.10.2022 04:14 12,7 C 12,2 C 10,0 C 97 % 1011,6 hPa 0,0 l/m 0 min 0 min 0 W/m 3,2 km/h (1 Bft) 93,62 %
16.10.2022 04:16 12,7 C 12,2 C 10,0 C 97 % 1011,6 hPa 0,0 l/m 0 min 0 min 0 W/m 9,7 km/h (2 Bft) 95,74 %
16.10.2022 04:18 12,7 C 12,2 C 10,0 C 97 % 1011,6 hPa 0,0 l/m 0 min 0 min 0 W/m 6,4 km/h (2 Bft) 97,87 %
16.10.2022 04:20 12,7 C 12,2 C 10,0 C 97 % 1011,6 hPa 0,0 l/m 0 min 0 min 0 W/m 3,2 km/h (1 Bft) 52,27 %
16.10.2022 04:22 12,7 C 12,2 C 10,0 C 97 % 1011,7 hPa 0,0 l/m 0 min 0 min 0 W/m 6,4 km/h (2 Bft) 97,83 %
16.10.2022 04:24 12,7 C 12,2 C 10,0 C 97 % 1011,6 hPa 0,0 l/m 0 min 0 min 0 W/m 3,2 km/h (1 Bft) 100,00 %
16.10.2022 04:26 12,8 C 12,2 C 10,0 C 97 % 1011,7 hPa 0,0 l/m 0 min 0 min 0 W/m 3,2 km/h (1 Bft) 97,87 %
16.10.2022 04:28 12,8 C 12,2 C 10,6 C 97 % 1011,7 hPa 0,0 l/m 0 min 0 min 0 W/m 3,2 km/h (1 Bft) 97,87 %
16.10.2022 04:30 12,8 C 12,2 C 10,6 C 97 % 1011,7 hPa 0,0 l/m 0 min 0 min 0 W/m 6,4 km/h (2 Bft) 97,87 %
16.10.2022 04:32 12,8 C 12,2 C 10,6 C 97 % 1011,6 hPa 0,0 l/m 0 min 0 min 0 W/m 6,4 km/h (2 Bft) 93,62 %
16.10.2022 04:34 12,8 C 12,2 C 10,6 C 97 % 1011,6 hPa 0,0 l/m 0 min 0 min 0 W/m 3,2 km/h (1 Bft) 97,83 %
16.10.2022 04:36 12,8 C 12,2 C 10,6 C 97 % 1011,7 hPa 0,0 l/m 0 min 0 min 0 W/m 3,2 km/h (1 Bft) 96,00 %
16.10.2022 04:38 12,8 C 12,2 C 10,6 C 97 % 1011,7 hPa 0,0 l/m 0 min 0 min 0 W/m 6,4 km/h (2 Bft) 95,74 %
16.10.2022 04:40 12,8 C 12,2 C 10,6 C 97 % 1011,7 hPa 0,0 l/m 0 min 0 min 0 W/m 6,4 km/h (2 Bft) 95,74 %
16.10.2022 04:42 12,8 C 12,2 C 10,6 C 97 % 1011,7 hPa 0,0 l/m 0 min 0 min 0 W/m 6,4 km/h (2 Bft) 95,74 %
16.10.2022 04:44 12,8 C 12,2 C 10,6 C 97 % 1011,7 hPa 0,0 l/m 0 min 0 min 0 W/m 9,7 km/h (2 Bft) 95,65 %
16.10.2022 04:46 12,8 C 12,2 C 10,6 C 97 % 1011,6 hPa 0,0 l/m 0 min 0 min 0 W/m 6,4 km/h (2 Bft) 95,74 %
16.10.2022 04:48 12,8 C 12,2 C 10,6 C 97 % 1011,6 hPa 0,0 l/m 0 min 0 min 0 W/m 6,4 km/h (2 Bft) 97,87 %
16.10.2022 04:50 12,8 C 12,2 C 10,6 C 97 % 1011,6 hPa 0,0 l/m 0 min 0 min 0 W/m 3,2 km/h (1 Bft) 93,62 %
16.10.2022 04:52 12,8 C 12,2 C 10,6 C 97 % 1011,6 hPa 0,0 l/m 0 min 0 min 0 W/m 6,4 km/h (2 Bft) 97,87 %
16.10.2022 04:54 12,9 C 12,2 C 10,6 C 97 % 1011,6 hPa 0,0 l/m 0 min 0 min 0 W/m 3,2 km/h (1 Bft) 97,87 %
16.10.2022 04:56 12,8 C 12,2 C 10,6 C 97 % 1011,6 hPa 0,0 l/m 0 min 0 min 0 W/m 6,4 km/h (2 Bft) 91,30 %
16.10.2022 04:58 12,8 C 12,2 C 10,6 C 97 % 1011,7 hPa 0,0 l/m 0 min 0 min 0 W/m 3,2 km/h (1 Bft) 95,74 %
16.10.2022 05:00 12,8 C 12,2 C 10,6 C 96 % 1011,8 hPa 0,0 l/m 0 min 0 min 0 W/m 6,4 km/h (2 Bft) 95,74 %
16.10.2022 05:02 12,8 C 12,2 C 10,6 C 96 % 1011,8 hPa 0,0 l/m 0 min 0 min 0 W/m 9,7 km/h (2 Bft) 93,62 %
16.10.2022 05:04 12,8 C 12,2 C 10,6 C 96 % 1011,7 hPa 0,0 l/m 0 min 0 min 0 W/m 3,2 km/h (1 Bft) 95,74 %
16.10.2022 05:06 12,8 C 12,2 C 10,6 C 96 % 1011,6 hPa 0,0 l/m 0 min 0 min 0 W/m 3,2 km/h (1 Bft) 95,74 %
16.10.2022 05:08 12,8 C 12,2 C 10,6 C 96 % 1011,6 hPa 0,0 l/m 0 min 0 min 0 W/m 9,7 km/h (2 Bft) 97,83 %
16.10.2022 05:10 12,8 C 12,2 C 10,6 C 96 % 1011,7 hPa 0,0 l/m 0 min 0 min 0 W/m 9,7 km/h (2 Bft) 95,74 %
16.10.2022 05:12 12,8 C 12,2 C 10,0 C 96 % 1011,6 hPa 0,0 l/m 0 min 0 min 0 W/m 3,2 km/h (1 Bft) 95,74 %
16.10.2022 05:14 12,8 C 12,2 C 10,0 C 96 % 1011,6 hPa 0,0 l/m 0 min 0 min 0 W/m 3,2 km/h (1 Bft) 97,87 %
16.10.2022 05:16 12,8 C 12,2 C 10,0 C 96 % 1011,7 hPa 0,0 l/m 0 min 0 min 0 W/m 3,2 km/h (1 Bft) 97,87 %
16.10.2022 05:18 12,8 C 12,2 C 10,0 C 96 % 1011,6 hPa 0,0 l/m 0 min 0 min 0 W/m 3,2 km/h (1 Bft) 97,87 %
16.10.2022 05:20 12,8 C 12,2 C 10,0 C 96 % 1011,7 hPa 0,0 l/m 0 min 0 min 0 W/m 3,2 km/h (1 Bft) 97,83 %
16.10.2022 05:22 12,8 C 12,2 C 10,0 C 96 % 1011,6 hPa 0,0 l/m 0 min 0 min 0 W/m 12,9 km/h (3 Bft) 95,74 %
16.10.2022 05:24 12,8 C 12,2 C 10,0 C 96 % 1011,6 hPa 0,0 l/m 0 min 0 min 0 W/m 3,2 km/h (1 Bft) 97,87 %
16.10.2022 05:26 12,8 C 12,2 C 10,0 C 96 % 1011,7 hPa 0,0 l/m 0 min 0 min 0 W/m 6,4 km/h (2 Bft) 95,74 %
16.10.2022 05:28 12,8 C 12,2 C 10,0 C 96 % 1011,7 hPa 0,0 l/m 0 min 0 min 0 W/m 6,4 km/h (2 Bft) 97,87 %
16.10.2022 05:30 12,8 C 12,2 C 10,0 C 96 % 1011,6 hPa 0,0 l/m 0 min 0 min 0 W/m 3,2 km/h (1 Bft) 100,00 %
16.10.2022 05:32 12,8 C 12,2 C 10,0 C 96 % 1011,6 hPa 0,0 l/m 0 min 0 min 0 W/m 3,2 km/h (1 Bft) 100,00 %
16.10.2022 05:34 12,8 C 12,2 C 10,0 C 96 % 1011,8 hPa 0,0 l/m 0 min 0 min 0 W/m 9,7 km/h (2 Bft) 100,00 %
16.10.2022 05:36 12,8 C 12,2 C 10,0 C 96 % 1011,8 hPa 0,0 l/m 0 min 0 min 0 W/m 9,7 km/h (2 Bft) 100,00 %
16.10.2022 05:38 12,8 C 12,2 C 10,0 C 96 % 1011,8 hPa 0,0 l/m 0 min 0 min 0 W/m 6,4 km/h (2 Bft) 100,00 %
16.10.2022 05:40 12,8 C 12,2 C 10,0 C 96 % 1011,8 hPa 0,0 l/m 0 min 0 min 0 W/m 6,4 km/h (2 Bft) 100,00 %
16.10.2022 05:42 12,8 C 12,2 C 10,0 C 95 % 1011,9 hPa 0,0 l/m 0 min 0 min 0 W/m 9,7 km/h (2 Bft) 100,00 %
16.10.2022 05:44 12,8 C 12,2 C 10,0 C 95 % 1011,8 hPa 0,0 l/m 0 min 0 min 0 W/m 6,4 km/h (2 Bft) 100,00 %
16.10.2022 05:46 12,7 C 12,2 C 10,0 C 95 % 1011,8 hPa 0,0 l/m 0 min 0 min 0 W/m 6,4 km/h (2 Bft) 100,00 %
16.10.2022 05:48 12,8 C 12,2 C 10,0 C 95 % 1011,8 hPa 0,0 l/m 0 min 0 min 0 W/m 3,2 km/h (1 Bft) 100,00 %
16.10.2022 05:50 12,7 C 12,2 C 10,0 C 95 % 1011,8 hPa 0,0 l/m 0 min 0 min 0 W/m 3,2 km/h (1 Bft) 100,00 %
16.10.2022 05:52 12,7 C 12,2 C 10,0 C 95 % 1011,8 hPa 0,0 l/m 0 min 0 min 0 W/m 6,4 km/h (2 Bft) 100,00 %
16.10.2022 05:54 12,7 C 12,2 C 10,0 C 95 % 1011,8 hPa 0,0 l/m 0 min 0 min 0 W/m 6,4 km/h (2 Bft) 100,00 %
16.10.2022 05:56 12,7 C 12,2 C 10,0 C 95 % 1011,8 hPa 0,0 l/m 0 min 0 min 0 W/m 6,4 km/h (2 Bft) 100,00 %
16.10.2022 05:58 12,7 C 11,7 C 10,0 C 95 % 1011,7 hPa 0,0 l/m 0 min 0 min 0 W/m 3,2 km/h (1 Bft) 100,00 %
16.10.2022 06:00 12,7 C 11,7 C 10,0 C 95 % 1011,8 hPa 0,0 l/m 0 min 0 min 0 W/m 3,2 km/h (1 Bft) 100,00 %
16.10.2022 06:02 12,7 C 11,7 C 10,0 C 95 % 1011,8 hPa 0,0 l/m 0 min 0 min 0 W/m 3,2 km/h (1 Bft) 97,87 %
16.10.2022 06:04 12,6 C 11,7 C 10,0 C 95 % 1011,9 hPa 0,0 l/m 0 min 0 min 0 W/m 6,4 km/h (2 Bft) 100,00 %
16.10.2022 06:08 12,6 C 11,7 C 10,0 C 95 % 1011,9 hPa 0,0 l/m 0 min 0 min 0 W/m 6,4 km/h (2 Bft) 100,00 %
16.10.2022 06:10 12,6 C 11,7 C 10,0 C 95 % 1012,0 hPa 0,0 l/m 0 min 0 min 0 W/m 6,4 km/h (2 Bft) 100,00 %
16.10.2022 06:12 12,6 C 11,7 C 10,0 C 95 % 1012,0 hPa 0,0 l/m 0 min 0 min 0 W/m 6,4 km/h (2 Bft) 97,87 %
16.10.2022 06:14 12,6 C 11,7 C 10,0 C 95 % 1012,0 hPa 0,0 l/m 0 min 0 min 0 W/m 3,2 km/h (1 Bft) 97,87 %
16.10.2022 06:16 12,6 C 11,7 C 10,0 C 95 % 1012,0 hPa 0,0 l/m 0 min 0 min 0 W/m 6,4 km/h (2 Bft) 100,00 %
16.10.2022 06:18 12,6 C 11,7 C 10,0 C 95 % 1012,0 hPa 0,0 l/m 0 min 0 min 0 W/m 3,2 km/h (1 Bft) 100,00 %
16.10.2022 06:20 12,6 C 11,7 C 10,0 C 95 % 1012,0 hPa 0,0 l/m 0 min 0 min 0 W/m 3,2 km/h (1 Bft) 100,00 %
16.10.2022 06:22 12,6 C 11,7 C 10,0 C 95 % 1012,1 hPa 0,0 l/m 0 min 0 min 0 W/m 3,2 km/h (1 Bft) 100,00 %
16.10.2022 06:24 12,6 C 11,7 C 10,0 C 95 % 1012,1 hPa 0,0 l/m 0 min 0 min 0 W/m 12,9 km/h (3 Bft) 100,00 %
16.10.2022 06:26 12,5 C 11,7 C 10,0 C 95 % 1012,2 hPa 0,0 l/m 0 min 0 min 0 W/m 6,4 km/h (2 Bft) 100,00 %
16.10.2022 06:28 12,5 C 11,7 C 9,4 C 95 % 1012,3 hPa 0,0 l/m 0 min 0 min 0 W/m 6,4 km/h (2 Bft) 100,00 %
16.10.2022 06:30 12,5 C 11,7 C 9,4 C 95 % 1012,3 hPa 0,0 l/m 0 min 0 min 0 W/m 6,4 km/h (2 Bft) 100,00 %
16.10.2022 06:32 12,5 C 11,7 C 9,4 C 95 % 1012,3 hPa 0,0 l/m 0 min 0 min 0 W/m 3,2 km/h (1 Bft) 95,65 %
16.10.2022 06:34 12,5 C 11,7 C 9,4 C 95 % 1012,3 hPa 0,0 l/m 0 min 0 min 0 W/m 6,4 km/h (2 Bft) 97,87 %
16.10.2022 06:36 12,5 C 11,7 C 9,4 C 95 % 1012,3 hPa 0,0 l/m 0 min 0 min 0 W/m 6,4 km/h (2 Bft) 94,00 %
16.10.2022 06:38 12,4 C 11,7 C 9,4 C 95 % 1012,2 hPa 0,0 l/m 0 min 0 min 0 W/m 6,4 km/h (2 Bft) 95,74 %
16.10.2022 06:40 12,4 C 11,7 C 9,4 C 95 % 1012,1 hPa 0,0 l/m 0 min 0 min 0 W/m 6,4 km/h (2 Bft) 93,62 %
16.10.2022 06:42 12,4 C 11,7 C 9,4 C 95 % 1012,2 hPa 0,0 l/m 0 min 0 min 0 W/m 9,7 km/h (2 Bft) 95,65 %
16.10.2022 06:44 12,4 C 11,7 C 9,4 C 95 % 1012,2 hPa 0,0 l/m 0 min 0 min 0 W/m 3,2 km/h (1 Bft) 97,87 %
16.10.2022 06:46 12,4 C 11,7 C 9,4 C 95 % 1012,2 hPa 0,0 l/m 0 min 0 min 0 W/m 6,4 km/h (2 Bft) 95,74 %
16.10.2022 06:48 12,4 C 11,7 C 9,4 C 95 % 1012,3 hPa 0,0 l/m 0 min 0 min 0 W/m 6,4 km/h (2 Bft) 93,62 %
16.10.2022 06:50 12,4 C 11,7 C 9,4 C 95 % 1012,3 hPa 0,0 l/m 0 min 0 min 0 W/m 3,2 km/h (1 Bft) 91,49 %
16.10.2022 06:52 12,4 C 11,7 C 9,4 C 95 % 1012,3 hPa 0,0 l/m 0 min 0 min 0 W/m 3,2 km/h (1 Bft) 91,49 %
16.10.2022 06:54 12,4 C 11,7 C 9,4 C 95 % 1012,4 hPa 0,0 l/m 0 min 0 min 0 W/m 6,4 km/h (2 Bft) 93,48 %
16.10.2022 06:56 12,4 C 11,7 C 9,4 C 95 % 1012,5 hPa 0,0 l/m 0 min 0 min 0 W/m 6,4 km/h (2 Bft) 93,62 %
16.10.2022 06:58 12,4 C 11,7 C 9,4 C 95 % 1012,6 hPa 0,0 l/m 0 min 0 min 0 W/m 3,2 km/h (1 Bft) 93,62 %
16.10.2022 07:00 12,4 C 11,7 C 9,4 C 95 % 1012,5 hPa 0,0 l/m 0 min 0 min 0 W/m 6,4 km/h (2 Bft) 93,62 %
16.10.2022 07:02 12,4 C 11,7 C 9,4 C 95 % 1012,5 hPa 0,0 l/m 0 min 0 min 0 W/m 3,2 km/h (1 Bft) 93,62 %
16.10.2022 07:04 12,4 C 11,7 C 9,4 C 95 % 1012,6 hPa 0,0 l/m 0 min 0 min 0 W/m 3,2 km/h (1 Bft) 91,49 %
16.10.2022 07:06 12,4 C 11,7 C 9,4 C 95 % 1012,6 hPa 0,0 l/m 0 min 0 min 0 W/m 3,2 km/h (1 Bft) 93,48 %
16.10.2022 07:08 12,4 C 11,7 C 9,4 C 95 % 1012,6 hPa 0,0 l/m 0 min 0 min 0 W/m 6,4 km/h (2 Bft) 91,49 %
16.10.2022 07:10 12,4 C 11,7 C 9,4 C 95 % 1012,6 hPa 0,0 l/m 0 min 0 min 0 W/m 6,4 km/h (2 Bft) 91,49 %
16.10.2022 07:12 12,3 C 11,7 C 9,4 C 95 % 1012,7 hPa 0,0 l/m 0 min 0 min 0 W/m 3,2 km/h (1 Bft) 93,62 %
16.10.2022 07:14 12,3 C 11,7 C 9,4 C 95 % 1012,7 hPa 0,0 l/m 0 min 0 min 0 W/m 9,7 km/h (2 Bft) 93,62 %
16.10.2022 07:16 12,3 C 11,7 C 9,4 C 95 % 1012,7 hPa 0,0 l/m 0 min 0 min 0 W/m 0,0 km/h (0 Bft) 91,49 %
16.10.2022 07:18 12,3 C 11,7 C 9,4 C 95 % 1012,7 hPa 0,0 l/m 0 min 0 min 0 W/m 0,0 km/h (0 Bft) 95,65 %
16.10.2022 07:20 12,3 C 11,7 C 9,4 C 95 % 1012,7 hPa 0,0 l/m 0 min 0 min 0 W/m 0,0 km/h (0 Bft) 95,74 %
16.10.2022 07:22 12,3 C 11,7 C 9,4 C 95 % 1012,7 hPa 0,0 l/m 0 min 0 min 0 W/m 0,0 km/h (0 Bft) 95,74 %
16.10.2022 07:24 12,3 C 11,7 C 9,4 C 95 % 1012,6 hPa 0,0 l/m 0 min 0 min 0 W/m 0,0 km/h (0 Bft) 95,74 %
16.10.2022 07:26 12,3 C 11,7 C 9,4 C 95 % 1012,7 hPa 0,0 l/m 0 min 0 min 0 W/m 0,0 km/h (0 Bft) 97,87 %
16.10.2022 07:28 12,3 C 11,7 C 9,4 C 95 % 1012,7 hPa 0,0 l/m 0 min 0 min 0 W/m 0,0 km/h (0 Bft) 97,87 %
16.10.2022 07:30 12,3 C 11,7 C 9,4 C 95 % 1012,8 hPa 0,0 l/m 0 min 0 min 0 W/m 0,0 km/h (0 Bft) 100,00 %
16.10.2022 07:32 12,3 C 11,7 C 9,4 C 95 % 1012,8 hPa 0,0 l/m 0 min 0 min 0 W/m 3,2 km/h (1 Bft) 97,87 %
16.10.2022 07:34 12,3 C 11,7 C 9,4 C 95 % 1012,8 hPa 0,0 l/m 0 min 0 min 0 W/m 6,4 km/h (2 Bft) 100,00 %
16.10.2022 07:36 12,3 C 11,7 C 9,4 C 95 % 1012,8 hPa 0,0 l/m 0 min 0 min 0 W/m 3,2 km/h (1 Bft) 97,87 %
16.10.2022 07:38 12,3 C 11,7 C 9,4 C 95 % 1012,8 hPa 0,0 l/m 0 min 0 min 0 W/m 3,2 km/h (1 Bft) 100,00 %
16.10.2022 07:40 12,3 C 11,7 C 9,4 C 95 % 1012,8 hPa 0,0 l/m 0 min 0 min 0 W/m 3,2 km/h (1 Bft) 100,00 %
16.10.2022 07:42 12,3 C 11,7 C 9,4 C 95 % 1012,8 hPa 0,0 l/m 0 min 0 min 0 W/m 3,2 km/h (1 Bft) 100,00 %
16.10.2022 07:44 12,3 C 11,7 C 9,4 C 95 % 1012,8 hPa 0,0 l/m 0 min 0 min 0 W/m 3,2 km/h (1 Bft) 100,00 %
16.10.2022 07:46 12,3 C 11,7 C 9,4 C 95 % 1012,9 hPa 0,0 l/m 0 min 0 min 0 W/m 6,4 km/h (2 Bft) 97,87 %
16.10.2022 07:48 12,3 C 11,7 C 9,4 C 95 % 1012,9 hPa 0,0 l/m 0 min 0 min 0 W/m 3,2 km/h (1 Bft) 97,87 %
16.10.2022 07:50 12,3 C 11,7 C 9,4 C 95 % 1013,0 hPa 0,0 l/m 0 min 0 min 0 W/m 9,7 km/h (2 Bft) 100,00 %
16.10.2022 07:52 12,3 C 11,7 C 9,4 C 95 % 1013,0 hPa 0,0 l/m 0 min 0 min 0 W/m 6,4 km/h (2 Bft) 97,83 %
16.10.2022 07:54 12,3 C 11,7 C 9,4 C 95 % 1013,0 hPa 0,0 l/m 0 min 0 min 0 W/m 6,4 km/h (2 Bft) 100,00 %
16.10.2022 07:56 12,3 C 11,7 C 9,4 C 95 % 1013,0 hPa 0,0 l/m 0 min 0 min 0 W/m 3,2 km/h (1 Bft) 100,00 %
16.10.2022 07:58 12,3 C 11,7 C 9,4 C 95 % 1013,1 hPa 0,0 l/m 0 min 0 min 0 W/m 3,2 km/h (1 Bft) 100,00 %
16.10.2022 08:00 12,3 C 11,7 C 9,4 C 95 % 1013,1 hPa 0,0 l/m 0 min 0 min 0 W/m 6,4 km/h (2 Bft) 97,87 %
16.10.2022 08:02 12,2 C 11,7 C 9,4 C 95 % 1013,2 hPa 0,0 l/m 0 min 0 min 0 W/m 6,4 km/h (2 Bft) 100,00 %
16.10.2022 08:04 12,2 C 11,7 C 9,4 C 96 % 1013,3 hPa 0,0 l/m 0 min 0 min 3 W/m 6,4 km/h (2 Bft) 100,00 %
16.10.2022 08:06 12,2 C 11,7 C 9,4 C 96 % 1013,2 hPa 0,0 l/m 0 min 0 min 5 W/m 9,7 km/h (2 Bft) 100,00 %
16.10.2022 08:08 12,2 C 11,7 C 9,4 C 96 % 1013,2 hPa 0,0 l/m 0 min 0 min 5 W/m 3,2 km/h (1 Bft) 100,00 %
16.10.2022 08:10 12,2 C 11,7 C 9,4 C 96 % 1013,2 hPa 0,0 l/m 0 min 0 min 7 W/m 3,2 km/h (1 Bft) 100,00 %
16.10.2022 08:12 12,2 C 11,7 C 9,4 C 96 % 1013,3 hPa 0,0 l/m 0 min 0 min 9 W/m 6,4 km/h (2 Bft) 100,00 %
16.10.2022 08:14 12,2 C 11,7 C 9,4 C 96 % 1013,2 hPa 0,0 l/m 0 min 0 min 9 W/m 3,2 km/h (1 Bft) 100,00 %
16.10.2022 08:16 12,2 C 11,7 C 9,4 C 96 % 1013,2 hPa 0,0 l/m 0 min 0 min 9 W/m 3,2 km/h (1 Bft) 100,00 %
16.10.2022 08:18 12,2 C 11,7 C 9,4 C 96 % 1013,4 hPa 0,0 l/m 0 min 0 min 11 W/m 3,2 km/h (1 Bft) 100,00 %
16.10.2022 08:20 12,2 C 11,7 C 9,4 C 96 % 1013,3 hPa 0,0 l/m 0 min 0 min 12 W/m 6,4 km/h (2 Bft) 100,00 %
16.10.2022 08:22 12,2 C 11,7 C 9,4 C 96 % 1013,3 hPa 0,0 l/m 0 min 0 min 16 W/m 3,2 km/h (1 Bft) 97,56 %
16.10.2022 08:24 12,2 C 11,7 C 9,4 C 96 % 1013,4 hPa 0,0 l/m 0 min 0 min 18 W/m 3,2 km/h (1 Bft) 100,00 %
16.10.2022 08:26 12,2 C 11,7 C 9,4 C 96 % 1013,4 hPa 0,0 l/m 0 min 0 min 18 W/m 6,4 km/h (2 Bft) 100,00 %
16.10.2022 08:28 12,2 C 11,7 C 9,4 C 96 % 1013,4 hPa 0,0 l/m 0 min 0 min 18 W/m 3,2 km/h (1 Bft) 100,00 %
16.10.2022 08:30 12,2 C 11,7 C 9,4 C 96 % 1013,5 hPa 0,0 l/m 0 min 0 min 20 W/m 3,2 km/h (1 Bft) 100,00 %
16.10.2022 08:32 12,2 C 11,7 C 9,4 C 96 % 1013,4 hPa 0,0 l/m 0 min 0 min 24 W/m 3,2 km/h (1 Bft) 100,00 %
16.10.2022 08:34 12,2 C 11,7 C 9,4 C 96 % 1013,4 hPa 0,0 l/m 0 min 0 min 29 W/m 3,2 km/h (1 Bft) 95,74 %
16.10.2022 08:36 12,2 C 11,7 C 9,4 C 96 % 1013,4 hPa 0,0 l/m 0 min 0 min 30 W/m 6,4 km/h (2 Bft) 100,00 %
16.10.2022 08:38 12,2 C 11,7 C 9,4 C 96 % 1013,5 hPa 0,0 l/m 0 min 0 min 25 W/m 6,4 km/h (2 Bft) 97,83 %
16.10.2022 08:40 12,2 C 11,7 C 9,4 C 96 % 1013,5 hPa 0,0 l/m 0 min 0 min 24 W/m 3,2 km/h (1 Bft) 97,62 %
16.10.2022 08:42 12,2 C 11,7 C 9,4 C 96 % 1013,6 hPa 0,0 l/m 0 min 0 min 21 W/m 6,4 km/h (2 Bft) 97,83 %
16.10.2022 08:44 12,2 C 11,7 C 9,4 C 96 % 1013,6 hPa 0,0 l/m 0 min 0 min 21 W/m 9,7 km/h (2 Bft) 95,74 %
16.10.2022 08:46 12,2 C 11,7 C 9,4 C 96 % 1013,7 hPa 0,0 l/m 0 min 0 min 21 W/m 6,4 km/h (2 Bft) 98,00 %
16.10.2022 08:48 12,2 C 11,7 C 9,4 C 96 % 1013,8 hPa 0,0 l/m 0 min 0 min 23 W/m 6,4 km/h (2 Bft) 97,87 %
16.10.2022 08:50 12,2 C 11,7 C 9,4 C 96 % 1013,8 hPa 0,0 l/m 0 min 0 min 21 W/m 6,4 km/h (2 Bft) 95,74 %
16.10.2022 08:52 12,2 C 11,7 C 9,4 C 96 % 1013,9 hPa 0,0 l/m 0 min 0 min 18 W/m 6,4 km/h (2 Bft) 97,96 %
16.10.2022 08:54 12,3 C 11,7 C 9,4 C 96 % 1014,0 hPa 0,0 l/m 0 min 0 min 16 W/m 6,4 km/h (2 Bft) 95,74 %
16.10.2022 08:56 12,3 C 11,7 C 9,4 C 96 % 1014,0 hPa 0,0 l/m 0 min 0 min 16 W/m 3,2 km/h (1 Bft) 96,00 %
16.10.2022 08:58 12,3 C 11,7 C 9,4 C 96 % 1014,1 hPa 0,0 l/m 0 min 0 min 16 W/m 9,7 km/h (2 Bft) 95,74 %
16.10.2022 09:00 12,3 C 11,7 C 9,4 C 96 % 1014,1 hPa 0,0 l/m 0 min 0 min 15 W/m 6,4 km/h (2 Bft) 97,87 %
16.10.2022 09:02 12,3 C 11,7 C 9,4 C 96 % 1014,2 hPa 0,0 l/m 0 min 0 min 14 W/m 9,7 km/h (2 Bft) 97,30 %
16.10.2022 09:04 12,3 C 11,7 C 9,4 C 96 % 1014,2 hPa 0,0 l/m 0 min 0 min 12 W/m 3,2 km/h (1 Bft) 98,00 %
16.10.2022 09:06 12,3 C 11,7 C 9,4 C 96 % 1014,2 hPa 0,2 l/m 0 min 0 min 12 W/m 3,2 km/h (1 Bft) 100,00 %
16.10.2022 09:08 12,3 C 11,7 C 9,4 C 96 % 1014,2 hPa 0,0 l/m 0 min 0 min 14 W/m 3,2 km/h (1 Bft) 97,87 %
16.10.2022 09:10 12,3 C 11,7 C 9,4 C 96 % 1014,3 hPa 0,0 l/m 0 min 0 min 12 W/m 3,2 km/h (1 Bft) 97,87 %
16.10.2022 09:12 12,3 C 11,7 C 9,4 C 96 % 1014,3 hPa 0,0 l/m 0 min 0 min 13 W/m 9,7 km/h (2 Bft) 97,83 %
16.10.2022 09:14 12,3 C 11,7 C 9,4 C 96 % 1014,3 hPa 0,0 l/m 0 min 0 min 14 W/m 6,4 km/h (2 Bft) 97,87 %
16.10.2022 09:16 12,3 C 11,7 C 9,4 C 96 % 1014,3 hPa 0,0 l/m 0 min 0 min 14 W/m 9,7 km/h (2 Bft) 97,87 %
16.10.2022 09:18 12,3 C 11,7 C 9,4 C 97 % 1014,4 hPa 0,0 l/m 0 min 0 min 14 W/m 3,2 km/h (1 Bft) 97,87 %
16.10.2022 09:20 12,3 C 11,7 C 9,4 C 97 % 1014,4 hPa 0,0 l/m 0 min 0 min 15 W/m 3,2 km/h (1 Bft) 96,23 %
16.10.2022 09:22 12,3 C 11,7 C 9,4 C 97 % 1014,4 hPa 0,0 l/m 0 min 0 min 17 W/m 6,4 km/h (2 Bft) 97,87 %
16.10.2022 09:24 12,3 C 11,7 C 9,4 C 97 % 1014,4 hPa 0,0 l/m 0 min 0 min 18 W/m 3,2 km/h (1 Bft) 97,87 %
16.10.2022 09:26 12,3 C 11,7 C 9,4 C 97 % 1014,4 hPa 0,0 l/m 0 min 0 min 22 W/m 3,2 km/h (1 Bft) 97,83 %
16.10.2022 09:28 12,3 C 11,7 C 9,4 C 97 % 1014,5 hPa 0,0 l/m 0 min 0 min 23 W/m 6,4 km/h (2 Bft) 97,37 %
16.10.2022 09:30 12,3 C 11,7 C 9,4 C 97 % 1014,5 hPa 0,0 l/m 0 min 0 min 25 W/m 6,4 km/h (2 Bft) 98,00 %
16.10.2022 09:32 12,3 C 11,7 C 9,4 C 97 % 1014,5 hPa 0,0 l/m 0 min 0 min 25 W/m 6,4 km/h (2 Bft) 97,87 %
16.10.2022 09:34 12,4 C 11,7 C 9,4 C 97 % 1014,5 hPa 0,0 l/m 0 min 0 min 26 W/m 6,4 km/h (2 Bft) 91,49 %
16.10.2022 09:36 12,4 C 12,2 C 9,4 C 97 % 1014,5 hPa 0,0 l/m 0 min 0 min 25 W/m 9,7 km/h (2 Bft) 95,65 %
16.10.2022 09:38 12,4 C 12,2 C 9,4 C 97 % 1014,6 hPa 0,0 l/m 0 min 0 min 24 W/m 6,4 km/h (2 Bft) 95,74 %
16.10.2022 09:40 12,4 C 12,2 C 9,4 C 97 % 1014,6 hPa 0,0 l/m 0 min 0 min 26 W/m 6,4 km/h (2 Bft) 95,74 %
16.10.2022 09:42 12,5 C 12,2 C 10,0 C 97 % 1014,7 hPa 0,0 l/m 0 min 0 min 28 W/m 12,9 km/h (3 Bft) 96,23 %
16.10.2022 09:44 12,5 C 12,2 C 10,0 C 97 % 1014,8 hPa 0,0 l/m 0 min 0 min 28 W/m 12,9 km/h (3 Bft) 95,74 %
16.10.2022 09:46 12,6 C 12,2 C 10,0 C 97 % 1014,8 hPa 0,0 l/m 0 min 0 min 28 W/m 9,7 km/h (2 Bft) 97,37 %
16.10.2022 09:48 12,6 C 12,8 C 10,0 C 97 % 1014,8 hPa 0,0 l/m 0 min 0 min 28 W/m 16,1 km/h (3 Bft) 97,78 %
16.10.2022 09:50 12,7 C 12,8 C 10,0 C 97 % 1014,8 hPa 0,0 l/m 0 min 0 min 28 W/m 9,7 km/h (2 Bft) 93,62 %
16.10.2022 09:52 12,7 C 12,8 C 10,0 C 97 % 1014,9 hPa 0,0 l/m 0 min 0 min 28 W/m 9,7 km/h (2 Bft) 97,87 %
16.10.2022 09:54 12,8 C 12,8 C 10,6 C 97 % 1014,9 hPa 0,0 l/m 0 min 0 min 30 W/m 12,9 km/h (3 Bft) 98,00 %
16.10.2022 09:56 12,8 C 12,8 C 10,6 C 97 % 1014,9 hPa 0,0 l/m 0 min 0 min 30 W/m 12,9 km/h (3 Bft) 97,87 %
16.10.2022 09:58 12,9 C 12,8 C 10,6 C 97 % 1014,9 hPa 0,0 l/m 0 min 0 min 30 W/m 16,1 km/h (3 Bft) 97,37 %
16.10.2022 10:00 12,9 C 12,8 C 10,6 C 97 % 1014,9 hPa 0,0 l/m 0 min 0 min 30 W/m 16,1 km/h (3 Bft) 98,18 %
16.10.2022 10:02 13,0 C 13,3 C 10,6 C 97 % 1015,0 hPa 0,0 l/m 0 min 0 min 31 W/m 12,9 km/h (3 Bft) 95,74 %
16.10.2022 10:04 13,1 C 13,3 C 10,6 C 97 % 1015,0 hPa 0,0 l/m 0 min 0 min 30 W/m 12,9 km/h (3 Bft) 97,96 %
16.10.2022 10:06 13,1 C 13,3 C 10,6 C 97 % 1015,0 hPa 0,0 l/m 0 min 0 min 46 W/m 22,5 km/h (4 Bft) 95,74 %
16.10.2022 10:08 13,2 C 13,3 C 10,6 C 97 % 1015,0 hPa 0,0 l/m 0 min 0 min 35 W/m 19,3 km/h (3 Bft) 97,87 %
16.10.2022 10:10 13,3 C 13,3 C 10,6 C 97 % 1015,0 hPa 0,0 l/m 0 min 0 min 30 W/m 16,1 km/h (3 Bft) 97,87 %
16.10.2022 10:12 13,4 C 13,3 C 10,6 C 97 % 1015,0 hPa 0,0 l/m 0 min 0 min 32 W/m 16,1 km/h (3 Bft) 97,87 %
16.10.2022 10:14 13,4 C 13,3 C 11,1 C 97 % 1015,0 hPa 0,0 l/m 0 min 0 min 32 W/m 16,1 km/h (3 Bft) 97,96 %
16.10.2022 10:16 13,5 C 13,9 C 11,1 C 97 % 1015,0 hPa 0,0 l/m 0 min 0 min 35 W/m 9,7 km/h (2 Bft) 97,22 %
16.10.2022 10:18 13,6 C 13,9 C 11,1 C 97 % 1015,0 hPa 0,0 l/m 0 min 0 min 32 W/m 19,3 km/h (3 Bft) 97,87 %
16.10.2022 10:20 13,7 C 13,9 C 11,1 C 97 % 1015,0 hPa 0,0 l/m 0 min 0 min 32 W/m 16,1 km/h (3 Bft) 97,87 %
16.10.2022 10:22 13,7 C 13,9 C 11,1 C 97 % 1015,0 hPa 0,0 l/m 0 min 0 min 33 W/m 16,1 km/h (3 Bft) 94,55 %
16.10.2022 10:24 13,8 C 13,9 C 11,1 C 97 % 1015,1 hPa 0,0 l/m 0 min 0 min 37 W/m 16,1 km/h (3 Bft) 98,00 %
16.10.2022 10:26 13,9 C 13,9 C 11,1 C 96 % 1015,2 hPa 0,0 l/m 0 min 0 min 68 W/m 22,5 km/h (4 Bft) 94,29 %
16.10.2022 10:28 14,0 C 14,4 C 11,1 C 96 % 1015,2 hPa 0,0 l/m 0 min 0 min 120 W/m 12,9 km/h (3 Bft) 97,87 %
16.10.2022 10:30 14,1 C 14,4 C 11,1 C 96 % 1015,3 hPa 0,0 l/m 0 min 0 min 86 W/m 16,1 km/h (3 Bft) 100,00 %
16.10.2022 10:32 14,1 C 14,4 C 11,1 C 96 % 1015,3 hPa 0,0 l/m 0 min 0 min 35 W/m 6,4 km/h (2 Bft) 98,11 %
16.10.2022 10:34 14,2 C 14,4 C 11,7 C 96 % 1015,4 hPa 0,0 l/m 0 min 0 min 50 W/m 12,9 km/h (3 Bft) 95,74 %
16.10.2022 10:36 14,3 C 14,4 C 11,7 C 96 % 1015,5 hPa 0,0 l/m 0 min 0 min 55 W/m 22,5 km/h (4 Bft) 95,74 %
16.10.2022 10:38 14,3 C 14,4 C 11,7 C 96 % 1015,5 hPa 0,0 l/m 0 min 0 min 36 W/m 22,5 km/h (4 Bft) 97,83 %
16.10.2022 10:40 14,4 C 14,4 C 11,7 C 95 % 1015,5 hPa 0,0 l/m 0 min 0 min 34 W/m 12,9 km/h (3 Bft) 95,74 %
16.10.2022 10:42 14,4 C 14,4 C 11,7 C 95 % 1015,5 hPa 0,0 l/m 0 min 0 min 38 W/m 6,4 km/h (2 Bft) 97,87 %
16.10.2022 10:44 14,6 C 14,4 C 11,7 C 95 % 1015,6 hPa 0,0 l/m 0 min 0 min 35 W/m 12,9 km/h (3 Bft) 98,00 %
16.10.2022 10:46 14,6 C 15,0 C 12,2 C 95 % 1015,7 hPa 0,0 l/m 0 min 0 min 72 W/m 6,4 km/h (2 Bft) 95,74 %
16.10.2022 10:48 14,7 C 15,0 C 12,2 C 94 % 1015,7 hPa 0,0 l/m 0 min 0 min 116 W/m 19,3 km/h (3 Bft) 95,92 %
16.10.2022 10:50 14,8 C 15,0 C 12,2 C 94 % 1015,7 hPa 0,0 l/m 2 min 0 min 346 W/m 16,1 km/h (3 Bft) 95,74 %
16.10.2022 10:52 14,9 C 15,0 C 12,2 C 94 % 1015,7 hPa 0,0 l/m 2 min 0 min 331 W/m 12,9 km/h (3 Bft) 93,62 %
16.10.2022 10:54 15,0 C 15,6 C 12,2 C 93 % 1015,7 hPa 0,0 l/m 2 min 0 min 356 W/m 12,9 km/h (3 Bft) 100,00 %
16.10.2022 10:56 15,1 C 15,6 C 12,8 C 93 % 1015,8 hPa 0,0 l/m 2 min 0 min 271 W/m 19,3 km/h (3 Bft) 97,87 %
16.10.2022 10:58 15,2 C 15,6 C 12,8 C 93 % 1015,8 hPa 0,0 l/m 0 min 0 min 128 W/m 16,1 km/h (3 Bft) 93,88 %
16.10.2022 11:00 15,3 C 15,6 C 12,8 C 92 % 1015,7 hPa 0,0 l/m 0 min 0 min 119 W/m 19,3 km/h (3 Bft) 97,87 %
16.10.2022 11:02 15,4 C 15,6 C 12,8 C 92 % 1015,8 hPa 0,0 l/m 0 min 0 min 100 W/m 22,5 km/h (4 Bft) 98,11 %
16.10.2022 11:04 15,5 C 16,1 C 12,8 C 92 % 1015,8 hPa 0,0 l/m 2 min 0 min 250 W/m 16,1 km/h (3 Bft) 95,45 %
16.10.2022 11:06 15,6 C 16,1 C 12,8 C 91 % 1015,8 hPa 0,0 l/m 2 min 0 min 254 W/m 9,7 km/h (2 Bft) 100,00 %
16.10.2022 11:08 15,7 C 16,7 C 13,3 C 91 % 1015,8 hPa 0,0 l/m 2 min 0 min 207 W/m 9,7 km/h (2 Bft) 100,00 %
16.10.2022 11:10 15,8 C 16,7 C 13,3 C 91 % 1015,7 hPa 0,0 l/m 0 min 0 min 88 W/m 12,9 km/h (3 Bft) 97,62 %
16.10.2022 11:12 15,8 C 17,2 C 13,3 C 90 % 1015,8 hPa 0,0 l/m 2 min 0 min 213 W/m 22,5 km/h (4 Bft) 100,00 %
16.10.2022 11:14 15,9 C 17,2 C 13,3 C 90 % 1015,9 hPa 0,0 l/m 0 min 0 min 157 W/m 9,7 km/h (2 Bft) 100,00 %
16.10.2022 11:16 16,1 C 17,2 C 13,3 C 89 % 1015,8 hPa 0,0 l/m 0 min 0 min 65 W/m 6,4 km/h (2 Bft) 97,87 %
16.10.2022 11:18 16,2 C 17,2 C 13,9 C 89 % 1015,9 hPa 0,0 l/m 0 min 0 min 151 W/m 22,5 km/h (4 Bft) 100,00 %
16.10.2022 11:20 16,3 C 18,3 C 13,9 C 89 % 1016,0 hPa 0,0 l/m 0 min 0 min 126 W/m 12,9 km/h (3 Bft) 100,00 %
16.10.2022 11:22 16,3 C 20,0 C 13,9 C 88 % 1015,9 hPa 0,0 l/m 0 min 0 min 176 W/m 25,7 km/h (4 Bft) 97,96 %
16.10.2022 11:24 16,4 C 21,7 C 13,9 C 87 % 1015,9 hPa 0,0 l/m 0 min 0 min 63 W/m 19,3 km/h (3 Bft) 100,00 %
16.10.2022 11:26 16,5 C 23,3 C 13,9 C 87 % 1015,9 hPa 0,0 l/m 0 min 0 min 121 W/m 6,4 km/h (2 Bft) 100,00 %
16.10.2022 11:28 16,6 C 23,9 C 14,4 C 87 % 1016,0 hPa 0,0 l/m 0 min 0 min 80 W/m 19,3 km/h (3 Bft) 97,56 %
16.10.2022 11:30 16,7 C 24,4 C 14,4 C 86 % 1016,0 hPa 0,0 l/m 0 min 0 min 130 W/m 16,1 km/h (3 Bft) 100,00 %
16.10.2022 11:32 16,7 C 24,4 C 14,4 C 86 % 1016,0 hPa 0,0 l/m 2 min 0 min 254 W/m 6,4 km/h (2 Bft) 100,00 %
16.10.2022 11:34 16,8 C 25,0 C 14,4 C 86 % 1015,9 hPa 0,0 l/m 2 min 0 min 264 W/m 16,1 km/h (3 Bft) 97,96 %
16.10.2022 11:36 16,9 C 25,6 C 15,0 C 85 % 1015,9 hPa 0,0 l/m 0 min 0 min 125 W/m 6,4 km/h (2 Bft) 97,87 %
16.10.2022 11:38 17,0 C 26,1 C 16,1 C 85 % 1016,0 hPa 0,0 l/m 2 min 0 min 390 W/m 16,1 km/h (3 Bft) 100,00 %
16.10.2022 11:40 17,1 C 26,1 C 17,2 C 85 % 1015,9 hPa 0,0 l/m 2 min 0 min 432 W/m 6,4 km/h (2 Bft) 93,62 %
16.10.2022 11:42 17,2 C 25,6 C 17,8 C 84 % 1016,0 hPa 0,0 l/m 2 min 0 min 456 W/m 19,3 km/h (3 Bft) 100,00 %
16.10.2022 11:44 17,2 C 26,1 C 18,9 C 83 % 1015,9 hPa 0,0 l/m 2 min 0 min 473 W/m 12,9 km/h (3 Bft) 97,62 %
16.10.2022 11:46 17,3 C 26,1 C 19,4 C 83 % 1015,9 hPa 0,0 l/m 2 min 0 min 481 W/m 16,1 km/h (3 Bft) 97,87 %
16.10.2022 11:48 17,3 C 25,6 C 18,9 C 83 % 1015,9 hPa 0,0 l/m 2 min 0 min 481 W/m 12,9 km/h (3 Bft) 100,00 %
16.10.2022 11:50 17,3 C 25,0 C 17,8 C 82 % 1015,9 hPa 0,0 l/m 2 min 0 min 486 W/m 16,1 km/h (3 Bft) 100,00 %
16.10.2022 11:52 17,3 C 22,8 C 17,2 C 81 % 1015,9 hPa 0,0 l/m 2 min 0 min 489 W/m 16,1 km/h (3 Bft) 95,74 %
16.10.2022 11:54 17,3 C 22,2 C 16,7 C 82 % 1016,0 hPa 0,0 l/m 2 min 0 min 297 W/m 12,9 km/h (3 Bft) 97,87 %
16.10.2022 11:56 17,3 C 21,7 C 16,7 C 82 % 1015,9 hPa 0,0 l/m 2 min 0 min 312 W/m 6,4 km/h (2 Bft) 97,87 %
16.10.2022 11:58 17,4 C 21,1 C 16,1 C 82 % 1016,0 hPa 0,0 l/m 2 min 0 min 470 W/m 12,9 km/h (3 Bft) 95,35 %
16.10.2022 12:00 17,4 C 20,6 C 15,6 C 82 % 1015,9 hPa 0,0 l/m 2 min 0 min 492 W/m 6,4 km/h (2 Bft) 100,00 %
16.10.2022 12:02 17,4 C 19,4 C 15,6 C 81 % 1015,9 hPa 0,0 l/m 2 min 0 min 346 W/m 12,9 km/h (3 Bft) 97,87 %
16.10.2022 12:04 17,4 C 18,9 C 15,0 C 81 % 1015,9 hPa 0,0 l/m 0 min 0 min 84 W/m 19,3 km/h (3 Bft) 96,00 %
16.10.2022 12:08 17,5 C 17,8 C 14,4 C 80 % 1015,8 hPa 0,0 l/m 0 min 0 min 62 W/m 16,1 km/h (3 Bft) 95,40 %
16.10.2022 12:10 17,4 C 17,8 C 14,4 C 81 % 1015,9 hPa 0,0 l/m 0 min 0 min 119 W/m 16,1 km/h (3 Bft) 95,74 %
16.10.2022 12:12 17,4 C 17,2 C 14,4 C 81 % 1015,9 hPa 0,0 l/m 0 min 0 min 99 W/m 12,9 km/h (3 Bft) 93,62 %
16.10.2022 12:14 17,5 C 17,2 C 13,9 C 81 % 1015,9 hPa 0,0 l/m 0 min 0 min 106 W/m 12,9 km/h (3 Bft) 97,87 %
16.10.2022 12:16 17,5 C 17,2 C 13,9 C 81 % 1015,9 hPa 0,0 l/m 0 min 0 min 52 W/m 9,7 km/h (2 Bft) 93,62 %
16.10.2022 12:18 17,5 C 17,2 C 13,9 C 81 % 1015,9 hPa 0,0 l/m 0 min 0 min 48 W/m 9,7 km/h (2 Bft) 95,74 %
16.10.2022 12:20 17,6 C 17,2 C 13,9 C 81 % 1016,0 hPa 0,0 l/m 0 min 0 min 46 W/m 6,4 km/h (2 Bft) 94,34 %
16.10.2022 12:22 17,6 C 17,8 C 13,9 C 81 % 1016,1 hPa 0,0 l/m 0 min 0 min 47 W/m 12,9 km/h (3 Bft) 93,48 %
16.10.2022 12:24 17,7 C 17,2 C 13,9 C 81 % 1016,1 hPa 0,0 l/m 0 min 0 min 47 W/m 6,4 km/h (2 Bft) 93,62 %
16.10.2022 12:26 17,7 C 17,8 C 13,9 C 81 % 1016,1 hPa 0,0 l/m 0 min 0 min 47 W/m 6,4 km/h (2 Bft) 95,74 %
16.10.2022 12:28 17,8 C 17,2 C 13,9 C 81 % 1016,1 hPa 0,0 l/m 0 min 0 min 53 W/m 16,1 km/h (3 Bft) 91,49 %
16.10.2022 12:30 17,8 C 17,8 C 13,9 C 80 % 1016,2 hPa 0,0 l/m 0 min 0 min 55 W/m 12,9 km/h (3 Bft) 93,62 %
16.10.2022 12:32 17,8 C 17,8 C 13,9 C 80 % 1016,2 hPa 0,0 l/m 0 min 0 min 68 W/m 12,9 km/h (3 Bft) 93,62 %
16.10.2022 12:34 17,8 C 17,8 C 13,9 C 80 % 1016,1 hPa 0,0 l/m 0 min 0 min 84 W/m 12,9 km/h (3 Bft) 91,30 %
16.10.2022 12:36 17,8 C 17,8 C 13,9 C 80 % 1016,2 hPa 0,0 l/m 0 min 0 min 90 W/m 6,4 km/h (2 Bft) 93,62 %
16.10.2022 12:38 17,9 C 17,8 C 13,9 C 80 % 1016,2 hPa 0,0 l/m 0 min 0 min 85 W/m 9,7 km/h (2 Bft) 91,49 %
16.10.2022 12:40 17,9 C 17,8 C 13,9 C 80 % 1016,2 hPa 0,0 l/m 0 min 0 min 81 W/m 16,1 km/h (3 Bft) 94,74 %
16.10.2022 12:42 18,0 C 17,8 C 13,9 C 79 % 1016,2 hPa 0,0 l/m 0 min 0 min 93 W/m 19,3 km/h (3 Bft) 93,62 %
16.10.2022 12:44 18,0 C 17,8 C 13,9 C 79 % 1016,3 hPa 0,0 l/m 0 min 0 min 113 W/m 6,4 km/h (2 Bft) 89,80 %
16.10.2022 12:46 18,0 C 17,8 C 13,9 C 79 % 1016,2 hPa 0,0 l/m 0 min 0 min 135 W/m 12,9 km/h (3 Bft) 91,49 %
16.10.2022 12:48 18,1 C 17,8 C 13,9 C 80 % 1016,2 hPa 0,0 l/m 0 min 0 min 125 W/m 12,9 km/h (3 Bft) 93,62 %
16.10.2022 12:50 18,1 C 17,8 C 13,9 C 80 % 1016,2 hPa 0,0 l/m 0 min 0 min 109 W/m 12,9 km/h (3 Bft) 93,62 %
16.10.2022 12:52 18,0 C 17,8 C 13,9 C 79 % 1016,1 hPa 0,0 l/m 0 min 0 min 81 W/m 12,9 km/h (3 Bft) 95,74 %
16.10.2022 12:54 18,0 C 17,8 C 13,9 C 79 % 1016,2 hPa 0,0 l/m 0 min 0 min 62 W/m 6,4 km/h (2 Bft) 93,88 %
16.10.2022 12:56 18,0 C 17,8 C 13,9 C 79 % 1016,2 hPa 0,0 l/m 0 min 0 min 65 W/m 12,9 km/h (3 Bft) 95,74 %
16.10.2022 12:58 18,1 C 17,8 C 13,9 C 80 % 1016,3 hPa 0,0 l/m 0 min 0 min 80 W/m 12,9 km/h (3 Bft) 93,62 %
16.10.2022 13:00 18,0 C 17,8 C 13,9 C 79 % 1016,2 hPa 0,0 l/m 0 min 0 min 106 W/m 9,7 km/h (2 Bft) 94,00 %
16.10.2022 13:02 18,1 C 17,8 C 13,9 C 79 % 1016,2 hPa 0,0 l/m 0 min 0 min 117 W/m 3,2 km/h (1 Bft) 94,29 %
16.10.2022 13:04 18,1 C 17,8 C 13,9 C 79 % 1016,2 hPa 0,0 l/m 0 min 0 min 80 W/m 12,9 km/h (3 Bft) 96,00 %
16.10.2022 13:06 18,1 C 17,8 C 13,9 C 79 % 1016,2 hPa 0,0 l/m 0 min 0 min 66 W/m 9,7 km/h (2 Bft) 98,11 %
16.10.2022 13:08 18,1 C 17,8 C 13,9 C 79 % 1016,3 hPa 0,0 l/m 0 min 0 min 74 W/m 12,9 km/h (3 Bft) 95,74 %
16.10.2022 13:10 18,1 C 17,8 C 13,9 C 78 % 1016,2 hPa 0,0 l/m 0 min 0 min 97 W/m 12,9 km/h (3 Bft) 100,00 %
16.10.2022 13:12 18,1 C 17,8 C 13,9 C 77 % 1016,2 hPa 0,0 l/m 0 min 0 min 87 W/m 6,4 km/h (2 Bft) 97,87 %
16.10.2022 13:14 18,1 C 17,8 C 13,9 C 78 % 1016,3 hPa 0,0 l/m 0 min 0 min 73 W/m 12,9 km/h (3 Bft) 100,00 %
16.10.2022 13:16 18,1 C 17,8 C 13,9 C 78 % 1016,3 hPa 0,0 l/m 0 min 0 min 86 W/m 12,9 km/h (3 Bft) 100,00 %
16.10.2022 13:18 18,1 C 17,2 C 13,9 C 78 % 1016,3 hPa 0,0 l/m 0 min 0 min 61 W/m 12,9 km/h (3 Bft) 97,83 %
16.10.2022 13:20 18,1 C 17,2 C 13,3 C 78 % 1016,4 hPa 0,0 l/m 0 min 0 min 60 W/m 12,9 km/h (3 Bft) 100,00 %
16.10.2022 13:22 18,1 C 17,8 C 13,9 C 78 % 1016,4 hPa 0,0 l/m 0 min 0 min 88 W/m 12,9 km/h (3 Bft) 100,00 %
16.10.2022 13:24 18,1 C 17,8 C 13,9 C 78 % 1016,4 hPa 0,0 l/m 0 min 0 min 85 W/m 16,1 km/h (3 Bft) 100,00 %
16.10.2022 13:26 18,1 C 17,8 C 13,9 C 78 % 1016,4 hPa 0,0 l/m 0 min 0 min 83 W/m 12,9 km/h (3 Bft) 100,00 %
16.10.2022 13:28 18,1 C 17,8 C 13,9 C 78 % 1016,4 hPa 0,0 l/m 0 min 0 min 89 W/m 9,7 km/h (2 Bft) 100,00 %
16.10.2022 13:30 18,1 C 17,8 C 13,9 C 79 % 1016,3 hPa 0,0 l/m 0 min 0 min 94 W/m 9,7 km/h (2 Bft) 100,00 %
16.10.2022 13:32 18,1 C 17,8 C 13,9 C 78 % 1016,3 hPa 0,0 l/m 0 min 0 min 107 W/m 12,9 km/h (3 Bft) 100,00 %
16.10.2022 13:34 18,1 C 17,8 C 13,9 C 78 % 1016,3 hPa 0,0 l/m 0 min 0 min 106 W/m 6,4 km/h (2 Bft) 100,00 %
16.10.2022 13:36 18,1 C 17,8 C 13,9 C 78 % 1016,4 hPa 0,0 l/m 0 min 0 min 106 W/m 6,4 km/h (2 Bft) 100,00 %
16.10.2022 13:38 18,1 C 17,8 C 13,9 C 78 % 1016,4 hPa 0,0 l/m 0 min 0 min 134 W/m 9,7 km/h (2 Bft) 100,00 %
16.10.2022 13:40 18,1 C 17,8 C 13,9 C 78 % 1016,4 hPa 0,0 l/m 0 min 0 min 110 W/m 12,9 km/h (3 Bft) 100,00 %
16.10.2022 13:42 18,1 C 17,8 C 13,9 C 78 % 1016,5 hPa 0,0 l/m 0 min 0 min 133 W/m 6,4 km/h (2 Bft) 97,83 %
16.10.2022 13:44 18,1 C 17,8 C 13,9 C 78 % 1016,5 hPa 0,0 l/m 0 min 0 min 130 W/m 6,4 km/h (2 Bft) 100,00 %
16.10.2022 13:46 18,1 C 18,3 C 13,9 C 78 % 1016,5 hPa 0,0 l/m 0 min 0 min 131 W/m 6,4 km/h (2 Bft) 100,00 %
16.10.2022 13:48 18,2 C 18,3 C 13,9 C 78 % 1016,5 hPa 0,0 l/m 0 min 0 min 130 W/m 12,9 km/h (3 Bft) 100,00 %
16.10.2022 13:50 18,2 C 18,9 C 13,9 C 78 % 1016,4 hPa 0,0 l/m 0 min 0 min 156 W/m 6,4 km/h (2 Bft) 100,00 %
16.10.2022 13:52 18,2 C 18,9 C 13,9 C 78 % 1016,4 hPa 0,0 l/m 0 min 0 min 235 W/m 6,4 km/h (2 Bft) 100,00 %
16.10.2022 13:54 18,3 C 18,9 C 13,9 C 78 % 1016,4 hPa 0,0 l/m 2 min 0 min 350 W/m 6,4 km/h (2 Bft) 100,00 %
16.10.2022 13:56 18,3 C 19,4 C 13,9 C 78 % 1016,4 hPa 0,0 l/m 2 min 0 min 524 W/m 3,2 km/h (1 Bft) 100,00 %
16.10.2022 13:58 18,4 C 19,4 C 13,9 C 78 % 1016,4 hPa 0,0 l/m 0 min 0 min 237 W/m 6,4 km/h (2 Bft) 100,00 %
16.10.2022 14:00 18,4 C 18,9 C 13,9 C 78 % 1016,5 hPa 0,0 l/m 0 min 0 min 141 W/m 16,1 km/h (3 Bft) 100,00 %
16.10.2022 14:02 18,5 C 19,4 C 13,9 C 78 % 1016,5 hPa 0,0 l/m 0 min 0 min 218 W/m 6,4 km/h (2 Bft) 100,00 %
16.10.2022 14:04 18,5 C 20,0 C 13,9 C 77 % 1016,5 hPa 0,0 l/m 2 min 0 min 364 W/m 12,9 km/h (3 Bft) 100,00 %
16.10.2022 14:06 18,6 C 20,0 C 13,9 C 76 % 1016,5 hPa 0,0 l/m 2 min 0 min 517 W/m 12,9 km/h (3 Bft) 100,00 %
16.10.2022 14:08 18,6 C 20,6 C 13,9 C 75 % 1016,5 hPa 0,0 l/m 2 min 0 min 636 W/m 19,3 km/h (3 Bft) 100,00 %
16.10.2022 14:10 18,7 C 21,1 C 14,4 C 74 % 1016,5 hPa 0,0 l/m 2 min 0 min 581 W/m 6,4 km/h (2 Bft) 100,00 %
16.10.2022 14:12 18,8 C 20,0 C 14,4 C 74 % 1016,5 hPa 0,0 l/m 2 min 0 min 482 W/m 12,9 km/h (3 Bft) 97,87 %
16.10.2022 14:14 18,8 C 20,6 C 14,4 C 73 % 1016,4 hPa 0,0 l/m 2 min 0 min 548 W/m 3,2 km/h (1 Bft) 100,00 %
16.10.2022 14:16 18,9 C 20,0 C 14,4 C 74 % 1016,4 hPa 0,0 l/m 2 min 0 min 489 W/m 6,4 km/h (2 Bft) 97,87 %
16.10.2022 14:18 18,9 C 20,0 C 14,4 C 74 % 1016,3 hPa 0,0 l/m 2 min 0 min 573 W/m 6,4 km/h (2 Bft) 100,00 %
16.10.2022 14:20 19,0 C 20,6 C 14,4 C 74 % 1016,4 hPa 0,0 l/m 2 min 0 min 469 W/m 6,4 km/h (2 Bft) 100,00 %
16.10.2022 14:22 19,1 C 20,0 C 14,4 C 73 % 1016,4 hPa 0,0 l/m 2 min 0 min 469 W/m 9,7 km/h (2 Bft) 98,00 %
16.10.2022 14:24 19,1 C 20,0 C 14,4 C 73 % 1016,4 hPa 0,0 l/m 2 min 0 min 435 W/m 12,9 km/h (3 Bft) 100,00 %
16.10.2022 14:26 19,1 C 20,0 C 15,0 C 73 % 1016,5 hPa 0,0 l/m 2 min 0 min 478 W/m 12,9 km/h (3 Bft) 100,00 %
16.10.2022 14:28 19,2 C 20,0 C 15,0 C 73 % 1016,4 hPa 0,0 l/m 2 min 0 min 632 W/m 12,9 km/h (3 Bft) 100,00 %
16.10.2022 14:30 19,2 C 19,4 C 15,0 C 73 % 1016,4 hPa 0,0 l/m 2 min 0 min 508 W/m 12,9 km/h (3 Bft) 100,00 %
16.10.2022 14:32 19,2 C 19,4 C 15,0 C 73 % 1016,4 hPa 0,0 l/m 2 min 0 min 273 W/m 6,4 km/h (2 Bft) 97,87 %
16.10.2022 14:34 19,2 C 18,9 C 14,4 C 73 % 1016,3 hPa 0,0 l/m 0 min 0 min 199 W/m 9,7 km/h (2 Bft) 100,00 %
16.10.2022 14:36 19,2 C 18,9 C 14,4 C 73 % 1016,4 hPa 0,0 l/m 0 min 0 min 176 W/m 9,7 km/h (2 Bft) 96,36 %
16.10.2022 14:38 19,2 C 18,9 C 14,4 C 74 % 1016,4 hPa 0,0 l/m 0 min 0 min 175 W/m 3,2 km/h (1 Bft) 95,74 %
16.10.2022 14:40 19,2 C 18,9 C 14,4 C 74 % 1016,4 hPa 0,0 l/m 0 min 0 min 192 W/m 3,2 km/h (1 Bft) 97,87 %
16.10.2022 14:42 19,2 C 18,9 C 14,4 C 74 % 1016,5 hPa 0,0 l/m 0 min 0 min 214 W/m 16,1 km/h (3 Bft) 97,87 %
16.10.2022 14:44 19,2 C 18,9 C 14,4 C 74 % 1016,6 hPa 0,0 l/m 2 min 0 min 283 W/m 9,7 km/h (2 Bft) 97,83 %
16.10.2022 14:46 19,2 C 19,4 C 14,4 C 74 % 1016,6 hPa 0,0 l/m 2 min 0 min 425 W/m 12,9 km/h (3 Bft) 95,74 %
16.10.2022 14:48 19,3 C 19,4 C 14,4 C 74 % 1016,6 hPa 0,0 l/m 2 min 0 min 559 W/m 9,7 km/h (2 Bft) 98,00 %
16.10.2022 14:50 19,3 C 19,4 C 14,4 C 73 % 1016,6 hPa 0,0 l/m 2 min 0 min 542 W/m 9,7 km/h (2 Bft) 91,67 %
16.10.2022 14:52 19,4 C 18,9 C 14,4 C 73 % 1016,6 hPa 0,0 l/m 2 min 0 min 540 W/m 22,5 km/h (4 Bft) 95,65 %
16.10.2022 14:54 19,4 C 18,9 C 14,4 C 72 % 1016,6 hPa 0,0 l/m 0 min 0 min 180 W/m 22,5 km/h (4 Bft) 96,00 %
16.10.2022 14:56 19,4 C 18,9 C 14,4 C 72 % 1016,5 hPa 0,0 l/m 0 min 0 min 188 W/m 9,7 km/h (2 Bft) 93,62 %
16.10.2022 14:58 19,3 C 18,9 C 14,4 C 71 % 1016,5 hPa 0,0 l/m 2 min 0 min 277 W/m 19,3 km/h (3 Bft) 94,00 %
16.10.2022 15:00 19,3 C 18,9 C 14,4 C 72 % 1016,5 hPa 0,0 l/m 2 min 0 min 247 W/m 12,9 km/h (3 Bft) 95,35 %
16.10.2022 15:02 19,3 C 18,9 C 14,4 C 70 % 1016,5 hPa 0,0 l/m 2 min 0 min 280 W/m 16,1 km/h (3 Bft) 91,49 %
16.10.2022 15:04 19,3 C 18,9 C 14,4 C 71 % 1016,5 hPa 0,0 l/m 2 min 0 min 274 W/m 12,9 km/h (3 Bft) 95,24 %
16.10.2022 15:06 19,3 C 18,9 C 14,4 C 70 % 1016,5 hPa 0,0 l/m 0 min 0 min 171 W/m 19,3 km/h (3 Bft) 96,55 %
16.10.2022 15:08 19,2 C 18,9 C 14,4 C 70 % 1016,5 hPa 0,0 l/m 0 min 0 min 178 W/m 16,1 km/h (3 Bft) 91,43 %
16.10.2022 15:10 19,2 C 18,9 C 14,4 C 69 % 1016,5 hPa 0,0 l/m 0 min 0 min 163 W/m 19,3 km/h (3 Bft) 94,55 %
16.10.2022 15:12 19,1 C 18,9 C 14,4 C 69 % 1016,5 hPa 0,0 l/m 0 min 0 min 163 W/m 19,3 km/h (3 Bft) 94,00 %
16.10.2022 15:14 19,0 C 18,3 C 14,4 C 69 % 1016,5 hPa 0,0 l/m 0 min 0 min 193 W/m 22,5 km/h (4 Bft) 93,62 %
16.10.2022 15:16 18,9 C 18,9 C 14,4 C 70 % 1016,6 hPa 0,0 l/m 2 min 0 min 211 W/m 22,5 km/h (4 Bft) 93,62 %
16.10.2022 15:18 18,9 C 18,9 C 14,4 C 70 % 1016,6 hPa 0,0 l/m 2 min 0 min 222 W/m 16,1 km/h (3 Bft) 91,43 %
16.10.2022 15:20 18,9 C 18,9 C 14,4 C 70 % 1016,6 hPa 0,0 l/m 2 min 0 min 281 W/m 16,1 km/h (3 Bft) 95,74 %
16.10.2022 15:22 18,8 C 18,9 C 14,4 C 71 % 1016,6 hPa 0,0 l/m 2 min 0 min 256 W/m 19,3 km/h (3 Bft) 91,49 %
16.10.2022 15:24 18,9 C 18,9 C 14,4 C 71 % 1016,7 hPa 0,0 l/m 2 min 0 min 219 W/m 16,1 km/h (3 Bft) 95,74 %
16.10.2022 15:26 18,8 C 18,9 C 14,4 C 71 % 1016,7 hPa 0,0 l/m 2 min 0 min 207 W/m 9,7 km/h (2 Bft) 95,74 %
16.10.2022 15:28 18,9 C 18,9 C 14,4 C 71 % 1016,7 hPa 0,0 l/m 0 min 0 min 192 W/m 12,9 km/h (3 Bft) 95,74 %
16.10.2022 15:30 18,9 C 18,9 C 14,4 C 72 % 1016,6 hPa 0,0 l/m 0 min 0 min 171 W/m 3,2 km/h (1 Bft) 98,18 %
16.10.2022 15:32 18,8 C 18,9 C 13,9 C 72 % 1016,6 hPa 0,0 l/m 0 min 0 min 162 W/m 3,2 km/h (1 Bft) 95,92 %
16.10.2022 15:34 18,8 C 18,9 C 13,9 C 72 % 1016,6 hPa 0,0 l/m 0 min 0 min 178 W/m 9,7 km/h (2 Bft) 97,92 %
16.10.2022 15:36 18,8 C 18,9 C 13,9 C 73 % 1016,6 hPa 0,0 l/m 0 min 0 min 192 W/m 6,4 km/h (2 Bft) 95,74 %
16.10.2022 15:38 18,8 C 18,9 C 13,9 C 73 % 1016,7 hPa 0,0 l/m 2 min 0 min 192 W/m 6,4 km/h (2 Bft) 97,83 %
16.10.2022 15:40 18,8 C 18,9 C 13,9 C 73 % 1016,6 hPa 0,0 l/m 2 min 0 min 199 W/m 3,2 km/h (1 Bft) 95,74 %
16.10.2022 15:42 18,8 C 18,9 C 13,9 C 73 % 1016,6 hPa 0,0 l/m 2 min 0 min 217 W/m 3,2 km/h (1 Bft) 97,14 %
16.10.2022 15:44 18,8 C 18,9 C 13,9 C 73 % 1016,6 hPa 0,0 l/m 2 min 0 min 217 W/m 3,2 km/h (1 Bft) 98,18 %
16.10.2022 15:46 18,8 C 18,9 C 13,9 C 73 % 1016,6 hPa 0,0 l/m 2 min 0 min 211 W/m 6,4 km/h (2 Bft) 95,74 %
16.10.2022 15:48 18,8 C 18,9 C 13,9 C 73 % 1016,5 hPa 0,0 l/m 2 min 0 min 206 W/m 9,7 km/h (2 Bft) 97,87 %
16.10.2022 15:50 18,9 C 18,9 C 14,4 C 73 % 1016,6 hPa 0,0 l/m 2 min 0 min 319 W/m 3,2 km/h (1 Bft) 97,87 %
16.10.2022 15:52 18,9 C 19,4 C 14,4 C 73 % 1016,5 hPa 0,0 l/m 2 min 0 min 331 W/m 3,2 km/h (1 Bft) 97,87 %
16.10.2022 15:54 18,9 C 19,4 C 14,4 C 73 % 1016,6 hPa 0,0 l/m 2 min 0 min 411 W/m 6,4 km/h (2 Bft) 97,96 %
16.10.2022 15:56 19,0 C 19,4 C 14,4 C 73 % 1016,7 hPa 0,0 l/m 2 min 0 min 294 W/m 3,2 km/h (1 Bft) 97,87 %
16.10.2022 15:58 19,1 C 19,4 C 14,4 C 73 % 1016,7 hPa 0,0 l/m 2 min 0 min 289 W/m 6,4 km/h (2 Bft) 96,00 %
16.10.2022 16:00 19,1 C 19,4 C 14,4 C 73 % 1016,7 hPa 0,0 l/m 0 min 0 min 128 W/m 6,4 km/h (2 Bft) 100,00 %
16.10.2022 16:02 19,1 C 19,4 C 13,9 C 73 % 1016,8 hPa 0,0 l/m 0 min 0 min 101 W/m 3,2 km/h (1 Bft) 95,83 %
16.10.2022 16:04 19,1 C 18,9 C 13,9 C 73 % 1016,8 hPa 0,0 l/m 0 min 0 min 81 W/m 3,2 km/h (1 Bft) 97,87 %
16.10.2022 16:06 19,2 C 18,9 C 13,9 C 74 % 1016,8 hPa 0,0 l/m 0 min 0 min 61 W/m 3,2 km/h (1 Bft) 100,00 %
16.10.2022 16:08 19,1 C 18,3 C 13,9 C 74 % 1016,8 hPa 0,0 l/m 0 min 0 min 59 W/m 0,0 km/h (0 Bft) 100,00 %
16.10.2022 16:10 19,2 C 18,3 C 13,9 C 74 % 1016,8 hPa 0,0 l/m 0 min 0 min 71 W/m 0,0 km/h (0 Bft) 100,00 %
16.10.2022 16:12 19,1 C 18,3 C 13,3 C 74 % 1016,7 hPa 0,0 l/m 0 min 0 min 77 W/m 0,0 km/h (0 Bft) 100,00 %
16.10.2022 16:14 19,1 C 18,3 C 13,3 C 74 % 1016,6 hPa 0,0 l/m 0 min 0 min 80 W/m 0,0 km/h (0 Bft) 97,83 %
16.10.2022 16:16 19,1 C 17,8 C 13,3 C 74 % 1016,5 hPa 0,0 l/m 0 min 0 min 97 W/m 0,0 km/h (0 Bft) 100,00 %
16.10.2022 16:18 19,1 C 18,3 C 13,3 C 75 % 1016,5 hPa 0,0 l/m 0 min 2 min 126 W/m 0,0 km/h (0 Bft) 100,00 %
16.10.2022 16:20 19,1 C 18,3 C 13,3 C 75 % 1016,7 hPa 0,0 l/m 2 min 0 min 164 W/m 6,4 km/h (2 Bft) 100,00 %
16.10.2022 16:22 19,1 C 18,9 C 13,3 C 75 % 1016,7 hPa 0,0 l/m 2 min 0 min 370 W/m 3,2 km/h (1 Bft) 100,00 %
16.10.2022 16:24 19,1 C 18,9 C 13,3 C 75 % 1016,7 hPa 0,0 l/m 2 min 0 min 210 W/m 3,2 km/h (1 Bft) 100,00 %
16.10.2022 16:26 19,1 C 18,9 C 13,3 C 75 % 1016,8 hPa 0,0 l/m 2 min 0 min 159 W/m 0,0 km/h (0 Bft) 100,00 %
16.10.2022 16:28 19,1 C 18,9 C 13,9 C 75 % 1016,8 hPa 0,0 l/m 0 min 0 min 135 W/m 0,0 km/h (0 Bft) 100,00 %
16.10.2022 16:30 19,1 C 18,9 C 13,9 C 75 % 1016,8 hPa 0,0 l/m 0 min 0 min 108 W/m 3,2 km/h (1 Bft) 100,00 %
16.10.2022 16:32 19,1 C 18,3 C 13,9 C 75 % 1016,8 hPa 0,0 l/m 0 min 0 min 88 W/m 0,0 km/h (0 Bft) 100,00 %
16.10.2022 16:34 19,1 C 18,3 C 13,3 C 75 % 1016,7 hPa 0,0 l/m 0 min 0 min 72 W/m 3,2 km/h (1 Bft) 100,00 %
16.10.2022 16:36 19,1 C 18,3 C 13,9 C 74 % 1016,7 hPa 0,0 l/m 0 min 0 min 60 W/m 3,2 km/h (1 Bft) 100,00 %
16.10.2022 16:38 19,1 C 18,3 C 13,9 C 74 % 1016,7 hPa 0,0 l/m 0 min 0 min 66 W/m 3,2 km/h (1 Bft) 100,00 %
16.10.2022 16:40 19,0 C 18,3 C 13,9 C 74 % 1016,6 hPa 0,0 l/m 0 min 0 min 66 W/m 3,2 km/h (1 Bft) 100,00 %
16.10.2022 16:42 19,0 C 18,3 C 13,3 C 74 % 1016,8 hPa 0,0 l/m 0 min 0 min 79 W/m 0,0 km/h (0 Bft) 100,00 %
16.10.2022 16:44 19,0 C 17,8 C 13,3 C 74 % 1016,8 hPa 0,0 l/m 0 min 0 min 90 W/m 0,0 km/h (0 Bft) 97,87 %
16.10.2022 16:46 18,9 C 17,8 C 13,3 C 74 % 1016,9 hPa 0,0 l/m 0 min 0 min 76 W/m 6,4 km/h (2 Bft) 100,00 %
16.10.2022 16:48 18,9 C 17,8 C 13,3 C 74 % 1016,9 hPa 0,0 l/m 0 min 0 min 45 W/m 6,4 km/h (2 Bft) 100,00 %
16.10.2022 16:50 18,9 C 17,8 C 13,3 C 74 % 1016,8 hPa 0,0 l/m 0 min 0 min 32 W/m 3,2 km/h (1 Bft) 100,00 %
16.10.2022 16:52 18,8 C 17,8 C 13,3 C 74 % 1016,8 hPa 0,0 l/m 0 min 0 min 33 W/m 3,2 km/h (1 Bft) 100,00 %
16.10.2022 16:54 18,8 C 17,8 C 13,3 C 74 % 1016,8 hPa 0,0 l/m 0 min 0 min 35 W/m 3,2 km/h (1 Bft) 96,00 %
16.10.2022 16:56 18,8 C 17,2 C 12,8 C 75 % 1016,8 hPa 0,0 l/m 0 min 0 min 40 W/m 0,0 km/h (0 Bft) 97,87 %
16.10.2022 16:58 18,8 C 17,2 C 12,8 C 75 % 1016,8 hPa 0,0 l/m 0 min 0 min 45 W/m 3,2 km/h (1 Bft) 100,00 %
16.10.2022 17:00 18,8 C 17,2 C 12,8 C 75 % 1016,8 hPa 0,0 l/m 0 min 0 min 47 W/m 0,0 km/h (0 Bft) 93,62 %
16.10.2022 17:02 18,8 C 17,2 C 12,8 C 75 % 1016,8 hPa 0,0 l/m 0 min 0 min 44 W/m 0,0 km/h (0 Bft) 97,87 %
16.10.2022 17:04 18,8 C 17,2 C 12,8 C 75 % 1016,7 hPa 0,0 l/m 0 min 0 min 40 W/m 0,0 km/h (0 Bft) 97,96 %
16.10.2022 17:06 18,7 C 17,2 C 12,8 C 75 % 1016,8 hPa 0,0 l/m 0 min 2 min 34 W/m 3,2 km/h (1 Bft) 97,87 %
16.10.2022 17:08 18,7 C 17,2 C 12,8 C 75 % 1016,8 hPa 0,0 l/m 0 min 0 min 33 W/m 3,2 km/h (1 Bft) 97,87 %
16.10.2022 17:10 18,7 C 17,2 C 12,8 C 75 % 1016,7 hPa 0,0 l/m 0 min 2 min 40 W/m 6,4 km/h (2 Bft) 97,87 %
16.10.2022 17:12 18,7 C 17,2 C 12,8 C 75 % 1016,6 hPa 0,0 l/m 0 min 2 min 41 W/m 0,0 km/h (0 Bft) 93,48 %
16.10.2022 17:14 18,6 C 17,2 C 12,8 C 75 % 1016,6 hPa 0,0 l/m 0 min 0 min 34 W/m 3,2 km/h (1 Bft) 95,74 %
16.10.2022 17:16 18,6 C 17,2 C 12,8 C 76 % 1016,6 hPa 0,0 l/m 0 min 0 min 34 W/m 3,2 km/h (1 Bft) 95,74 %
16.10.2022 17:18 18,6 C 17,2 C 12,8 C 76 % 1016,4 hPa 0,0 l/m 0 min 0 min 41 W/m 3,2 km/h (1 Bft) 94,34 %
16.10.2022 17:20 18,6 C 17,2 C 12,8 C 77 % 1016,4 hPa 0,0 l/m 0 min 0 min 48 W/m 0,0 km/h (0 Bft) 96,00 %
16.10.2022 17:22 18,6 C 17,2 C 12,8 C 77 % 1016,4 hPa 0,0 l/m 0 min 0 min 47 W/m 0,0 km/h (0 Bft) 95,74 %
16.10.2022 17:24 18,6 C 17,2 C 12,8 C 78 % 1016,4 hPa 0,0 l/m 0 min 0 min 44 W/m 0,0 km/h (0 Bft) 95,74 %
16.10.2022 17:26 18,6 C 17,2 C 12,8 C 78 % 1016,4 hPa 0,0 l/m 0 min 0 min 43 W/m 3,2 km/h (1 Bft) 94,59 %
16.10.2022 17:28 18,6 C 16,7 C 12,8 C 79 % 1016,3 hPa 0,0 l/m 0 min 0 min 42 W/m 3,2 km/h (1 Bft) 95,74 %
16.10.2022 17:30 18,5 C 16,7 C 12,8 C 79 % 1016,4 hPa 0,0 l/m 0 min 0 min 40 W/m 3,2 km/h (1 Bft) 95,74 %
16.10.2022 17:32 18,5 C 16,7 C 12,8 C 80 % 1016,4 hPa 0,0 l/m 0 min 0 min 37 W/m 0,0 km/h (0 Bft) 97,87 %
16.10.2022 17:34 18,4 C 16,7 C 12,8 C 80 % 1016,4 hPa 0,0 l/m 0 min 0 min 33 W/m 0,0 km/h (0 Bft) 97,87 %
16.10.2022 17:36 18,4 C 16,7 C 12,8 C 80 % 1016,4 hPa 0,0 l/m 0 min 0 min 33 W/m 0,0 km/h (0 Bft) 97,83 %
16.10.2022 17:38 18,4 C 16,7 C 12,8 C 80 % 1016,4 hPa 0,0 l/m 0 min 0 min 36 W/m 0,0 km/h (0 Bft) 95,74 %
16.10.2022 17:40 18,3 C 16,7 C 12,8 C 80 % 1016,5 hPa 0,0 l/m 0 min 2 min 36 W/m 0,0 km/h (0 Bft) 97,87 %
16.10.2022 17:42 18,3 C 16,7 C 12,8 C 80 % 1016,5 hPa 0,0 l/m 0 min 0 min 31 W/m 0,0 km/h (0 Bft) 98,15 %
16.10.2022 17:44 18,3 C 16,7 C 12,8 C 80 % 1016,5 hPa 0,0 l/m 0 min 0 min 27 W/m 0,0 km/h (0 Bft) 97,87 %
16.10.2022 17:46 18,2 C 16,7 C 12,2 C 81 % 1016,5 hPa 0,0 l/m 0 min 0 min 25 W/m 0,0 km/h (0 Bft) 97,87 %
16.10.2022 17:48 18,2 C 16,7 C 12,2 C 81 % 1016,5 hPa 0,0 l/m 0 min 0 min 25 W/m 0,0 km/h (0 Bft) 97,87 %
16.10.2022 17:50 18,2 C 16,7 C 12,2 C 81 % 1016,4 hPa 0,0 l/m 0 min 0 min 24 W/m 0,0 km/h (0 Bft) 97,83 %
16.10.2022 17:52 18,2 C 16,1 C 12,2 C 81 % 1016,4 hPa 0,0 l/m 0 min 0 min 22 W/m 0,0 km/h (0 Bft) 97,87 %
16.10.2022 17:54 18,2 C 16,1 C 12,2 C 82 % 1016,4 hPa 0,0 l/m 0 min 0 min 21 W/m 0,0 km/h (0 Bft) 94,74 %
16.10.2022 17:56 18,1 C 16,1 C 12,2 C 82 % 1016,3 hPa 0,0 l/m 0 min 0 min 21 W/m 0,0 km/h (0 Bft) 95,74 %
16.10.2022 17:58 18,1 C 16,1 C 12,2 C 82 % 1016,3 hPa 0,0 l/m 0 min 0 min 19 W/m 0,0 km/h (0 Bft) 100,00 %
16.10.2022 18:00 18,1 C 16,1 C 12,2 C 83 % 1016,2 hPa 0,0 l/m 0 min 0 min 18 W/m 0,0 km/h (0 Bft) 100,00 %
16.10.2022 18:02 18,1 C 16,1 C 12,2 C 83 % 1016,2 hPa 0,0 l/m 0 min 0 min 18 W/m 0,0 km/h (0 Bft) 98,18 %
16.10.2022 18:04 18,0 C 16,1 C 12,2 C 83 % 1016,2 hPa 0,0 l/m 0 min 0 min 16 W/m 0,0 km/h (0 Bft) 95,92 %
16.10.2022 18:08 17,9 C 15,6 C 12,2 C 84 % 1016,3 hPa 0,0 l/m 0 min 0 min 16 W/m 0,0 km/h (0 Bft) 100,00 %
16.10.2022 18:10 17,9 C 15,6 C 12,2 C 84 % 1016,4 hPa 0,0 l/m 0 min 0 min 16 W/m 0,0 km/h (0 Bft) 97,87 %
16.10.2022 18:12 17,8 C 15,6 C 11,7 C 84 % 1016,4 hPa 0,0 l/m 0 min 0 min 14 W/m 0,0 km/h (0 Bft) 100,00 %
16.10.2022 18:14 17,8 C 15,6 C 11,7 C 84 % 1016,4 hPa 0,0 l/m 0 min 0 min 13 W/m 0,0 km/h (0 Bft) 95,74 %
16.10.2022 18:16 17,7 C 15,6 C 11,7 C 84 % 1016,4 hPa 0,0 l/m 0 min 0 min 12 W/m 0,0 km/h (0 Bft) 97,87 %
16.10.2022 18:18 17,7 C 15,6 C 11,7 C 85 % 1016,3 hPa 0,0 l/m 0 min 0 min 12 W/m 0,0 km/h (0 Bft) 95,74 %
16.10.2022 18:20 17,6 C 15,6 C 11,7 C 85 % 1016,3 hPa 0,0 l/m 0 min 0 min 11 W/m 0,0 km/h (0 Bft) 97,87 %
16.10.2022 18:22 17,6 C 15,6 C 11,7 C 85 % 1016,3 hPa 0,0 l/m 0 min 0 min 8 W/m 0,0 km/h (0 Bft) 97,87 %
16.10.2022 18:24 17,5 C 15,6 C 11,7 C 85 % 1016,3 hPa 0,0 l/m 0 min 0 min 7 W/m 0,0 km/h (0 Bft) 97,83 %
16.10.2022 18:26 17,5 C 15,0 C 11,7 C 85 % 1016,3 hPa 0,0 l/m 0 min 0 min 6 W/m 0,0 km/h (0 Bft) 97,87 %
16.10.2022 18:28 17,4 C 15,0 C 11,7 C 85 % 1016,3 hPa 0,0 l/m 0 min 0 min 5 W/m 0,0 km/h (0 Bft) 95,74 %
16.10.2022 18:30 17,4 C 15,0 C 11,7 C 85 % 1016,4 hPa 0,0 l/m 0 min 0 min 2 W/m 0,0 km/h (0 Bft) 97,87 %
16.10.2022 18:32 17,3 C 15,0 C 11,7 C 85 % 1016,4 hPa 0,0 l/m 0 min 0 min 0 W/m 0,0 km/h (0 Bft) 97,87 %
16.10.2022 18:34 17,3 C 15,0 C 11,7 C 86 % 1016,4 hPa 0,0 l/m 0 min 0 min 0 W/m 0,0 km/h (0 Bft) 97,87 %
16.10.2022 18:36 17,3 C 15,0 C 11,7 C 86 % 1016,5 hPa 0,0 l/m 0 min 0 min 0 W/m 0,0 km/h (0 Bft) 97,83 %
16.10.2022 18:38 17,2 C 15,0 C 11,1 C 86 % 1016,5 hPa 0,0 l/m 0 min 0 min 0 W/m 0,0 km/h (0 Bft) 95,74 %
16.10.2022 18:40 17,2 C 15,0 C 11,1 C 86 % 1016,4 hPa 0,0 l/m 0 min 0 min 0 W/m 0,0 km/h (0 Bft) 97,87 %
16.10.2022 18:42 17,2 C 15,0 C 11,1 C 86 % 1016,4 hPa 0,0 l/m 0 min 0 min 0 W/m 0,0 km/h (0 Bft) 97,87 %
16.10.2022 18:44 17,1 C 15,0 C 11,1 C 86 % 1016,5 hPa 0,0 l/m 0 min 0 min 0 W/m 0,0 km/h (0 Bft) 95,74 %
16.10.2022 18:46 17,1 C 15,0 C 11,1 C 86 % 1016,5 hPa 0,0 l/m 0 min 0 min 0 W/m 0,0 km/h (0 Bft) 95,65 %
16.10.2022 18:48 17,0 C 15,0 C 11,1 C 86 % 1016,5 hPa 0,0 l/m 0 min 0 min 0 W/m 0,0 km/h (0 Bft) 97,87 %
16.10.2022 18:50 17,0 C 15,0 C 11,1 C 86 % 1016,6 hPa 0,0 l/m 0 min 0 min 0 W/m 0,0 km/h (0 Bft) 95,74 %
16.10.2022 18:52 16,9 C 15,0 C 11,1 C 87 % 1016,6 hPa 0,0 l/m 0 min 0 min 0 W/m 0,0 km/h (0 Bft) 97,87 %
16.10.2022 18:54 16,9 C 15,0 C 11,1 C 87 % 1016,6 hPa 0,0 l/m 0 min 0 min 0 W/m 0,0 km/h (0 Bft) 96,00 %
16.10.2022 18:56 16,8 C 14,4 C 11,1 C 87 % 1016,7 hPa 0,0 l/m 0 min 0 min 0 W/m 0,0 km/h (0 Bft) 95,74 %
16.10.2022 18:58 16,8 C 14,4 C 11,1 C 87 % 1016,7 hPa 0,0 l/m 0 min 0 min 0 W/m 0,0 km/h (0 Bft) 97,96 %
16.10.2022 19:00 16,8 C 14,4 C 11,1 C 87 % 1016,7 hPa 0,0 l/m 0 min 0 min 0 W/m 0,0 km/h (0 Bft) 97,87 %
16.10.2022 19:02 16,7 C 14,4 C 11,1 C 87 % 1016,7 hPa 0,0 l/m 0 min 0 min 0 W/m 3,2 km/h (1 Bft) 95,65 %
16.10.2022 19:04 16,7 C 14,4 C 11,1 C 87 % 1016,7 hPa 0,0 l/m 0 min 0 min 0 W/m 0,0 km/h (0 Bft) 95,74 %
16.10.2022 19:06 16,6 C 14,4 C 11,1 C 87 % 1016,6 hPa 0,0 l/m 0 min 0 min 0 W/m 0,0 km/h (0 Bft) 97,87 %
16.10.2022 19:08 16,6 C 14,4 C 11,1 C 87 % 1016,6 hPa 0,0 l/m 0 min 0 min 0 W/m 0,0 km/h (0 Bft) 97,87 %
16.10.2022 19:10 16,6 C 14,4 C 11,1 C 87 % 1016,6 hPa 0,0 l/m 0 min 0 min 0 W/m 0,0 km/h (0 Bft) 93,62 %
16.10.2022 19:12 16,5 C 14,4 C 11,1 C 88 % 1016,7 hPa 0,0 l/m 0 min 0 min 0 W/m 0,0 km/h (0 Bft) 97,87 %
16.10.2022 19:14 16,4 C 14,4 C 11,1 C 88 % 1016,7 hPa 0,0 l/m 0 min 0 min 0 W/m 0,0 km/h (0 Bft) 97,83 %
16.10.2022 19:16 16,4 C 14,4 C 11,1 C 88 % 1016,8 hPa 0,0 l/m 0 min 0 min 0 W/m 0,0 km/h (0 Bft) 97,87 %
16.10.2022 19:18 16,4 C 14,4 C 11,1 C 88 % 1016,9 hPa 0,0 l/m 0 min 0 min 0 W/m 0,0 km/h (0 Bft) 97,87 %
16.10.2022 19:20 16,4 C 14,4 C 11,1 C 88 % 1016,8 hPa 0,0 l/m 0 min 0 min 0 W/m 0,0 km/h (0 Bft) 97,87 %
16.10.2022 19:22 16,3 C 14,4 C 11,1 C 88 % 1016,9 hPa 0,0 l/m 0 min 0 min 0 W/m 3,2 km/h (1 Bft) 97,87 %
16.10.2022 19:24 16,3 C 14,4 C 11,1 C 88 % 1016,9 hPa 0,0 l/m 0 min 0 min 0 W/m 3,2 km/h (1 Bft) 97,87 %
16.10.2022 19:26 16,2 C 14,4 C 11,1 C 88 % 1016,8 hPa 0,0 l/m 0 min 0 min 0 W/m 3,2 km/h (1 Bft) 95,65 %
16.10.2022 19:28 16,2 C 14,4 C 11,1 C 88 % 1016,8 hPa 0,0 l/m 0 min 0 min 0 W/m 3,2 km/h (1 Bft) 100,00 %
16.10.2022 19:30 16,2 C 14,4 C 11,1 C 88 % 1016,9 hPa 0,0 l/m 0 min 0 min 0 W/m 3,2 km/h (1 Bft) 100,00 %
16.10.2022 19:32 16,1 C 14,4 C 11,1 C 88 % 1016,9 hPa 0,0 l/m 0 min 0 min 0 W/m 3,2 km/h (1 Bft) 100,00 %
16.10.2022 19:34 16,1 C 14,4 C 11,1 C 88 % 1016,9 hPa 0,0 l/m 0 min 0 min 0 W/m 0,0 km/h (0 Bft) 100,00 %
16.10.2022 19:36 16,1 C 14,4 C 11,1 C 88 % 1016,9 hPa 0,0 l/m 0 min 0 min 0 W/m 3,2 km/h (1 Bft) 97,83 %
16.10.2022 19:38 16,1 C 14,4 C 11,1 C 88 % 1016,8 hPa 0,0 l/m 0 min 0 min 0 W/m 3,2 km/h (1 Bft) 100,00 %
16.10.2022 19:40 16,0 C 14,4 C 11,1 C 88 % 1016,8 hPa 0,0 l/m 0 min 0 min 0 W/m 0,0 km/h (0 Bft) 100,00 %
16.10.2022 19:42 16,0 C 14,4 C 11,1 C 89 % 1016,8 hPa 0,0 l/m 0 min 0 min 0 W/m 3,2 km/h (1 Bft) 100,00 %
16.10.2022 19:44 15,9 C 14,4 C 11,1 C 89 % 1016,8 hPa 0,0 l/m 0 min 0 min 0 W/m 0,0 km/h (0 Bft) 100,00 %
16.10.2022 19:46 15,9 C 14,4 C 11,1 C 89 % 1016,8 hPa 0,0 l/m 0 min 0 min 0 W/m 0,0 km/h (0 Bft) 100,00 %
16.10.2022 19:48 15,9 C 14,4 C 11,1 C 89 % 1016,8 hPa 0,0 l/m 0 min 0 min 0 W/m 0,0 km/h (0 Bft) 97,83 %
16.10.2022 19:50 15,8 C 14,4 C 11,1 C 89 % 1016,9 hPa 0,0 l/m 0 min 0 min 0 W/m 0,0 km/h (0 Bft) 100,00 %
16.10.2022 19:52 15,8 C 14,4 C 11,1 C 89 % 1016,9 hPa 0,0 l/m 0 min 0 min 0 W/m 0,0 km/h (0 Bft) 100,00 %
16.10.2022 19:54 15,8 C 14,4 C 11,1 C 89 % 1016,9 hPa 0,0 l/m 0 min 0 min 0 W/m 0,0 km/h (0 Bft) 100,00 %
16.10.2022 19:56 15,8 C 14,4 C 11,1 C 89 % 1016,9 hPa 0,0 l/m 0 min 0 min 0 W/m 0,0 km/h (0 Bft) 97,87 %
16.10.2022 19:58 15,8 C 14,4 C 11,1 C 89 % 1016,8 hPa 0,0 l/m 0 min 0 min 0 W/m 0,0 km/h (0 Bft) 97,87 %
16.10.2022 20:00 15,8 C 14,4 C 11,1 C 89 % 1016,7 hPa 0,0 l/m 0 min 0 min 0 W/m 0,0 km/h (0 Bft) 97,83 %
16.10.2022 20:02 15,7 C 14,4 C 11,1 C 90 % 1016,7 hPa 0,0 l/m 0 min 0 min 0 W/m 0,0 km/h (0 Bft) 97,87 %
16.10.2022 20:04 15,7 C 14,4 C 11,1 C 90 % 1016,7 hPa 0,0 l/m 0 min 0 min 0 W/m 0,0 km/h (0 Bft) 97,87 %
16.10.2022 20:06 15,7 C 14,4 C 11,1 C 90 % 1016,7 hPa 0,0 l/m 0 min 0 min 0 W/m 0,0 km/h (0 Bft) 95,74 %
16.10.2022 20:08 15,7 C 14,4 C 11,1 C 90 % 1016,7 hPa 0,0 l/m 0 min 0 min 0 W/m 0,0 km/h (0 Bft) 97,87 %
16.10.2022 20:10 15,7 C 14,4 C 11,1 C 90 % 1016,7 hPa 0,0 l/m 0 min 0 min 0 W/m 3,2 km/h (1 Bft) 97,87 %
16.10.2022 20:12 15,7 C 14,4 C 11,1 C 90 % 1016,7 hPa 0,0 l/m 0 min 0 min 0 W/m 0,0 km/h (0 Bft) 97,87 %
16.10.2022 20:14 15,6 C 14,4 C 11,1 C 90 % 1016,8 hPa 0,0 l/m 0 min 0 min 0 W/m 0,0 km/h (0 Bft) 95,74 %
16.10.2022 20:16 15,6 C 14,4 C 11,1 C 90 % 1016,7 hPa 0,0 l/m 0 min 0 min 0 W/m 3,2 km/h (1 Bft) 95,74 %
16.10.2022 20:18 15,6 C 14,4 C 11,1 C 90 % 1016,8 hPa 0,0 l/m 0 min 0 min 0 W/m 0,0 km/h (0 Bft) 97,87 %
16.10.2022 20:20 15,6 C 14,4 C 11,1 C 90 % 1016,8 hPa 0,0 l/m 0 min 0 min 0 W/m 0,0 km/h (0 Bft) 97,83 %
16.10.2022 20:22 15,6 C 14,4 C 11,1 C 90 % 1016,8 hPa 0,0 l/m 0 min 0 min 0 W/m 0,0 km/h (0 Bft) 97,87 %
16.10.2022 20:24 15,6 C 14,4 C 11,1 C 90 % 1016,8 hPa 0,0 l/m 0 min 0 min 0 W/m 0,0 km/h (0 Bft) 97,87 %
16.10.2022 20:26 15,6 C 14,4 C 11,1 C 90 % 1016,9 hPa 0,0 l/m 0 min 0 min 0 W/m 0,0 km/h (0 Bft) 97,87 %
16.10.2022 20:28 15,5 C 14,4 C 11,1 C 90 % 1016,9 hPa 0,0 l/m 0 min 0 min 0 W/m 0,0 km/h (0 Bft) 97,87 %
16.10.2022 20:30 15,5 C 14,4 C 11,1 C 91 % 1017,0 hPa 0,0 l/m 0 min 0 min 0 W/m 0,0 km/h (0 Bft) 95,65 %
16.10.2022 20:32 15,5 C 14,4 C 11,1 C 91 % 1017,0 hPa 0,0 l/m 0 min 0 min 0 W/m 0,0 km/h (0 Bft) 95,74 %
16.10.2022 20:34 15,5 C 14,4 C 11,1 C 91 % 1017,0 hPa 0,0 l/m 0 min 0 min 0 W/m 0,0 km/h (0 Bft) 97,87 %
16.10.2022 20:36 15,5 C 14,4 C 11,1 C 91 % 1017,0 hPa 0,0 l/m 0 min 0 min 0 W/m 0,0 km/h (0 Bft) 97,87 %
16.10.2022 20:38 15,4 C 14,4 C 11,1 C 91 % 1017,0 hPa 0,0 l/m 0 min 0 min 0 W/m 0,0 km/h (0 Bft) 95,74 %
16.10.2022 20:40 15,4 C 14,4 C 11,1 C 91 % 1017,0 hPa 0,0 l/m 0 min 0 min 0 W/m 0,0 km/h (0 Bft) 93,62 %
16.10.2022 20:42 15,4 C 14,4 C 11,1 C 91 % 1017,1 hPa 0,0 l/m 0 min 0 min 0 W/m 3,2 km/h (1 Bft) 97,83 %
16.10.2022 20:44 15,4 C 14,4 C 11,1 C 91 % 1017,2 hPa 0,0 l/m 0 min 2 min 0 W/m 0,0 km/h (0 Bft) 100,00 %
16.10.2022 20:46 15,4 C 14,4 C 11,1 C 91 % 1017,3 hPa 0,0 l/m 0 min 2 min 0 W/m 0,0 km/h (0 Bft) 95,74 %
16.10.2022 20:48 15,4 C 14,4 C 11,1 C 92 % 1017,5 hPa 0,0 l/m 0 min 2 min 0 W/m 0,0 km/h (0 Bft) 95,92 %
16.10.2022 20:50 15,5 C 14,4 C 11,1 C 92 % 1017,6 hPa 0,0 l/m 0 min 2 min 0 W/m 3,2 km/h (1 Bft) 95,74 %
16.10.2022 20:52 15,5 C 14,4 C 11,1 C 92 % 1017,8 hPa 0,0 l/m 0 min 2 min 0 W/m 3,2 km/h (1 Bft) 93,62 %
16.10.2022 20:54 15,5 C 14,4 C 11,1 C 92 % 1018,0 hPa 0,0 l/m 0 min 2 min 0 W/m 3,2 km/h (1 Bft) 93,62 %
16.10.2022 20:56 15,6 C 14,4 C 11,1 C 92 % 1017,9 hPa 0,2 l/m 0 min 2 min 0 W/m 6,4 km/h (2 Bft) 95,74 %
16.10.2022 20:58 15,6 C 14,4 C 10,6 C 92 % 1017,8 hPa 0,2 l/m 0 min 2 min 0 W/m 3,2 km/h (1 Bft) 91,30 %
16.10.2022 21:00 15,6 C 14,4 C 11,1 C 92 % 1018,0 hPa 0,2 l/m 0 min 2 min 0 W/m 6,4 km/h (2 Bft) 95,74 %
16.10.2022 21:02 15,6 C 14,4 C 11,1 C 93 % 1017,9 hPa 0,0 l/m 0 min 2 min 0 W/m 3,2 km/h (1 Bft) 93,62 %
16.10.2022 21:04 15,7 C 14,4 C 11,1 C 93 % 1017,5 hPa 0,2 l/m 0 min 2 min 0 W/m 0,0 km/h (0 Bft) 91,49 %
16.10.2022 21:06 15,7 C 14,4 C 11,1 C 93 % 1017,5 hPa 0,0 l/m 0 min 2 min 0 W/m 0,0 km/h (0 Bft) 95,74 %
16.10.2022 21:08 15,7 C 14,4 C 11,1 C 93 % 1017,5 hPa 0,2 l/m 0 min 2 min 0 W/m 0,0 km/h (0 Bft) 95,74 %
16.10.2022 21:10 15,7 C 14,4 C 11,1 C 93 % 1017,6 hPa 0,0 l/m 0 min 2 min 0 W/m 0,0 km/h (0 Bft) 93,62 %
16.10.2022 21:12 15,7 C 14,4 C 11,1 C 93 % 1017,7 hPa 0,0 l/m 0 min 2 min 0 W/m 0,0 km/h (0 Bft) 95,74 %
16.10.2022 21:14 15,7 C 14,4 C 11,1 C 93 % 1017,6 hPa 0,0 l/m 0 min 0 min 0 W/m 0,0 km/h (0 Bft) 95,74 %
16.10.2022 21:16 15,7 C 14,4 C 11,1 C 93 % 1017,7 hPa 0,0 l/m 0 min 0 min 0 W/m 3,2 km/h (1 Bft) 93,62 %
16.10.2022 21:18 15,7 C 14,4 C 11,1 C 94 % 1017,7 hPa 0,0 l/m 0 min 0 min 0 W/m 3,2 km/h (1 Bft) 95,65 %
16.10.2022 21:20 15,7 C 14,4 C 11,1 C 94 % 1017,7 hPa 0,0 l/m 0 min 0 min 0 W/m 0,0 km/h (0 Bft) 93,62 %
16.10.2022 21:22 15,7 C 14,4 C 11,1 C 94 % 1017,7 hPa 0,0 l/m 0 min 0 min 0 W/m 0,0 km/h (0 Bft) 91,49 %
16.10.2022 21:24 15,7 C 14,4 C 11,1 C 94 % 1017,7 hPa 0,0 l/m 0 min 2 min 0 W/m 3,2 km/h (1 Bft) 97,87 %
16.10.2022 21:26 15,7 C 14,4 C 11,1 C 94 % 1017,7 hPa 0,0 l/m 0 min 0 min 0 W/m 3,2 km/h (1 Bft) 97,87 %
16.10.2022 21:28 15,7 C 14,4 C 11,1 C 94 % 1017,7 hPa 0,0 l/m 0 min 0 min 0 W/m 0,0 km/h (0 Bft) 95,65 %
16.10.2022 21:30 15,7 C 14,4 C 11,1 C 94 % 1017,7 hPa 0,0 l/m 0 min 0 min 0 W/m 0,0 km/h (0 Bft) 100,00 %
16.10.2022 21:32 15,7 C 14,4 C 11,1 C 94 % 1017,6 hPa 0,0 l/m 0 min 0 min 0 W/m 0,0 km/h (0 Bft) 100,00 %
16.10.2022 21:34 15,7 C 14,4 C 11,1 C 94 % 1017,7 hPa 0,0 l/m 0 min 0 min 0 W/m 0,0 km/h (0 Bft) 97,87 %
16.10.2022 21:36 15,7 C 14,4 C 11,1 C 94 % 1017,8 hPa 0,0 l/m 0 min 0 min 0 W/m 3,2 km/h (1 Bft) 100,00 %
16.10.2022 21:38 15,7 C 14,4 C 11,1 C 94 % 1017,7 hPa 0,0 l/m 0 min 0 min 0 W/m 0,0 km/h (0 Bft) 97,14 %
16.10.2022 21:40 15,7 C 14,4 C 11,1 C 94 % 1017,8 hPa 0,0 l/m 0 min 0 min 0 W/m 3,2 km/h (1 Bft) 95,74 %
16.10.2022 21:42 15,7 C 14,4 C 11,1 C 94 % 1017,8 hPa 0,0 l/m 0 min 0 min 0 W/m 0,0 km/h (0 Bft) 100,00 %
16.10.2022 21:44 15,7 C 14,4 C 11,1 C 94 % 1017,7 hPa 0,0 l/m 0 min 0 min 0 W/m 0,0 km/h (0 Bft) 100,00 %
16.10.2022 21:46 15,7 C 14,4 C 11,1 C 94 % 1017,8 hPa 0,0 l/m 0 min 0 min 0 W/m 0,0 km/h (0 Bft) 97,87 %
16.10.2022 21:48 15,7 C 14,4 C 11,1 C 94 % 1017,7 hPa 0,0 l/m 0 min 0 min 0 W/m 0,0 km/h (0 Bft) 100,00 %
16.10.2022 21:50 15,6 C 14,4 C 11,1 C 94 % 1017,8 hPa 0,0 l/m 0 min 0 min 0 W/m 0,0 km/h (0 Bft) 100,00 %
16.10.2022 21:52 15,6 C 14,4 C 11,1 C 94 % 1017,7 hPa 0,0 l/m 0 min 0 min 0 W/m 0,0 km/h (0 Bft) 97,87 %
16.10.2022 21:54 15,6 C 13,9 C 11,1 C 94 % 1017,7 hPa 0,0 l/m 0 min 0 min 0 W/m 0,0 km/h (0 Bft) 100,00 %
16.10.2022 21:56 15,6 C 13,9 C 11,1 C 94 % 1017,7 hPa 0,0 l/m 0 min 0 min 0 W/m 0,0 km/h (0 Bft) 100,00 %
16.10.2022 21:58 15,6 C 13,9 C 11,1 C 94 % 1017,7 hPa 0,0 l/m 0 min 0 min 0 W/m 3,2 km/h (1 Bft) 97,87 %
16.10.2022 22:00 15,6 C 13,9 C 11,1 C 94 % 1017,7 hPa 0,0 l/m 0 min 0 min 0 W/m 0,0 km/h (0 Bft) 100,00 %
16.10.2022 22:02 15,6 C 14,4 C 11,1 C 94 % 1017,7 hPa 0,0 l/m 0 min 0 min 0 W/m 3,2 km/h (1 Bft) 100,00 %
16.10.2022 22:04 15,6 C 14,4 C 11,1 C 94 % 1017,7 hPa 0,0 l/m 0 min 0 min 0 W/m 6,4 km/h (2 Bft) 97,87 %
16.10.2022 22:06 15,6 C 14,4 C 11,1 C 95 % 1017,6 hPa 0,0 l/m 0 min 0 min 0 W/m 3,2 km/h (1 Bft) 100,00 %
16.10.2022 22:08 15,6 C 14,4 C 11,1 C 95 % 1017,5 hPa 0,0 l/m 0 min 0 min 0 W/m 3,2 km/h (1 Bft) 100,00 %
16.10.2022 22:10 15,6 C 14,4 C 11,1 C 95 % 1017,6 hPa 0,0 l/m 0 min 0 min 0 W/m 3,2 km/h (1 Bft) 95,74 %
16.10.2022 22:12 15,6 C 14,4 C 11,1 C 95 % 1017,6 hPa 0,0 l/m 0 min 0 min 0 W/m 3,2 km/h (1 Bft) 100,00 %
16.10.2022 22:14 15,6 C 14,4 C 11,1 C 95 % 1017,6 hPa 0,0 l/m 0 min 0 min 0 W/m 3,2 km/h (1 Bft) 100,00 %
16.10.2022 22:16 15,6 C 14,4 C 11,1 C 95 % 1017,6 hPa 0,0 l/m 0 min 0 min 0 W/m 3,2 km/h (1 Bft) 100,00 %
16.10.2022 22:18 15,6 C 14,4 C 11,1 C 95 % 1017,6 hPa 0,0 l/m 0 min 0 min 0 W/m 3,2 km/h (1 Bft) 100,00 %
16.10.2022 22:20 15,6 C 14,4 C 11,1 C 95 % 1017,5 hPa 0,0 l/m 0 min 0 min 0 W/m 3,2 km/h (1 Bft) 100,00 %
16.10.2022 22:22 15,6 C 14,4 C 11,1 C 95 % 1017,6 hPa 0,0 l/m 0 min 0 min 0 W/m 3,2 km/h (1 Bft) 97,87 %
16.10.2022 22:24 15,6 C 14,4 C 11,1 C 95 % 1017,6 hPa 0,0 l/m 0 min 0 min 0 W/m 3,2 km/h (1 Bft) 100,00 %
16.10.2022 22:26 15,6 C 14,4 C 11,1 C 95 % 1017,6 hPa 0,0 l/m 0 min 0 min 0 W/m 3,2 km/h (1 Bft) 100,00 %
16.10.2022 22:28 15,6 C 14,4 C 11,1 C 95 % 1017,6 hPa 0,0 l/m 0 min 0 min 0 W/m 3,2 km/h (1 Bft) 100,00 %
16.10.2022 22:30 15,6 C 14,4 C 11,1 C 95 % 1017,6 hPa 0,0 l/m 0 min 0 min 0 W/m 3,2 km/h (1 Bft) 100,00 %
16.10.2022 22:32 15,6 C 14,4 C 11,1 C 95 % 1017,6 hPa 0,0 l/m 0 min 0 min 0 W/m 3,2 km/h (1 Bft) 100,00 %
16.10.2022 22:34 15,6 C 14,4 C 11,1 C 95 % 1017,6 hPa 0,0 l/m 0 min 0 min 0 W/m 3,2 km/h (1 Bft) 97,87 %
16.10.2022 22:36 15,6 C 14,4 C 11,1 C 95 % 1017,6 hPa 0,0 l/m 0 min 0 min 0 W/m 3,2 km/h (1 Bft) 100,00 %
16.10.2022 22:38 15,6 C 14,4 C 11,1 C 95 % 1017,6 hPa 0,0 l/m 0 min 0 min 0 W/m 3,2 km/h (1 Bft) 100,00 %
16.10.2022 22:40 15,6 C 14,4 C 11,1 C 95 % 1017,7 hPa 0,0 l/m 0 min 0 min 0 W/m 3,2 km/h (1 Bft) 100,00 %
16.10.2022 22:42 15,6 C 14,4 C 11,1 C 95 % 1017,6 hPa 0,0 l/m 0 min 0 min 0 W/m 3,2 km/h (1 Bft) 95,74 %
16.10.2022 22:44 15,5 C 14,4 C 11,1 C 96 % 1017,7 hPa 0,0 l/m 0 min 0 min 0 W/m 3,2 km/h (1 Bft) 100,00 %
16.10.2022 22:46 15,5 C 14,4 C 11,1 C 96 % 1017,7 hPa 0,0 l/m 0 min 0 min 0 W/m 3,2 km/h (1 Bft) 95,74 %
16.10.2022 22:48 15,5 C 14,4 C 11,1 C 96 % 1017,7 hPa 0,0 l/m 0 min 0 min 0 W/m 3,2 km/h (1 Bft) 100,00 %
16.10.2022 22:50 15,5 C 14,4 C 11,1 C 96 % 1017,7 hPa 0,0 l/m 0 min 0 min 0 W/m 3,2 km/h (1 Bft) 95,74 %
16.10.2022 22:52 15,5 C 14,4 C 11,1 C 96 % 1017,6 hPa 0,0 l/m 0 min 0 min 0 W/m 3,2 km/h (1 Bft) 95,92 %
16.10.2022 22:54 15,5 C 14,4 C 11,1 C 96 % 1017,5 hPa 0,0 l/m 0 min 0 min 0 W/m 3,2 km/h (1 Bft) 95,65 %
16.10.2022 22:56 15,5 C 14,4 C 11,1 C 96 % 1017,6 hPa 0,0 l/m 0 min 0 min 0 W/m 3,2 km/h (1 Bft) 95,74 %
16.10.2022 22:58 15,5 C 14,4 C 11,1 C 96 % 1017,5 hPa 0,0 l/m 0 min 0 min 0 W/m 6,4 km/h (2 Bft) 95,74 %
16.10.2022 23:00 15,5 C 14,4 C 11,1 C 96 % 1017,5 hPa 0,0 l/m 0 min 0 min 0 W/m 3,2 km/h (1 Bft) 95,74 %
16.10.2022 23:02 15,5 C 14,4 C 11,1 C 96 % 1017,5 hPa 0,0 l/m 0 min 0 min 0 W/m 6,4 km/h (2 Bft) 93,62 %
16.10.2022 23:04 15,5 C 14,4 C 11,1 C 96 % 1017,5 hPa 0,0 l/m 0 min 0 min 0 W/m 6,4 km/h (2 Bft) 93,62 %
16.10.2022 23:06 15,5 C 14,4 C 11,1 C 96 % 1017,4 hPa 0,0 l/m 0 min 0 min 0 W/m 6,4 km/h (2 Bft) 95,65 %
16.10.2022 23:08 15,5 C 14,4 C 11,1 C 96 % 1017,5 hPa 0,0 l/m 0 min 0 min 0 W/m 3,2 km/h (1 Bft) 93,62 %
16.10.2022 23:10 15,5 C 14,4 C 11,1 C 96 % 1017,5 hPa 0,0 l/m 0 min 0 min 0 W/m 3,2 km/h (1 Bft) 91,49 %
16.10.2022 23:12 15,5 C 14,4 C 11,1 C 96 % 1017,5 hPa 0,0 l/m 0 min 0 min 0 W/m 3,2 km/h (1 Bft) 93,62 %
16.10.2022 23:14 15,5 C 14,4 C 11,1 C 96 % 1017,6 hPa 0,0 l/m 0 min 0 min 0 W/m 3,2 km/h (1 Bft) 95,74 %
16.10.2022 23:16 15,4 C 14,4 C 11,1 C 96 % 1017,5 hPa 0,0 l/m 0 min 0 min 0 W/m 3,2 km/h (1 Bft) 95,74 %
16.10.2022 23:18 15,4 C 14,4 C 11,1 C 96 % 1017,5 hPa 0,0 l/m 0 min 0 min 0 W/m 3,2 km/h (1 Bft) 95,65 %
16.10.2022 23:20 15,5 C 14,4 C 11,1 C 96 % 1017,5 hPa 0,0 l/m 0 min 0 min 0 W/m 3,2 km/h (1 Bft) 95,74 %
16.10.2022 23:22 15,5 C 14,4 C 11,1 C 96 % 1017,5 hPa 0,0 l/m 0 min 0 min 0 W/m 3,2 km/h (1 Bft) 93,62 %
16.10.2022 23:24 15,5 C 14,4 C 11,1 C 96 % 1017,5 hPa 0,0 l/m 0 min 0 min 0 W/m 6,4 km/h (2 Bft) 95,74 %
16.10.2022 23:26 15,6 C 15,0 C 11,1 C 96 % 1017,4 hPa 0,0 l/m 0 min 0 min 0 W/m 6,4 km/h (2 Bft) 95,74 %
16.10.2022 23:28 15,6 C 15,0 C 11,1 C 96 % 1017,4 hPa 0,0 l/m 0 min 0 min 0 W/m 3,2 km/h (1 Bft) 95,74 %
16.10.2022 23:30 15,6 C 15,0 C 11,1 C 96 % 1017,4 hPa 0,0 l/m 0 min 0 min 0 W/m 3,2 km/h (1 Bft) 95,65 %
16.10.2022 23:32 15,6 C 15,0 C 11,1 C 96 % 1017,4 hPa 0,0 l/m 0 min 0 min 0 W/m 3,2 km/h (1 Bft) 93,62 %
16.10.2022 23:34 15,6 C 15,0 C 11,1 C 96 % 1017,4 hPa 0,0 l/m 0 min 0 min 0 W/m 6,4 km/h (2 Bft) 95,74 %
16.10.2022 23:36 15,6 C 15,0 C 11,1 C 97 % 1017,3 hPa 0,0 l/m 0 min 0 min 0 W/m 6,4 km/h (2 Bft) 95,74 %
16.10.2022 23:38 15,7 C 15,0 C 11,1 C 97 % 1017,3 hPa 0,0 l/m 0 min 0 min 0 W/m 3,2 km/h (1 Bft) 94,74 %
16.10.2022 23:40 15,7 C 15,0 C 11,1 C 97 % 1017,4 hPa 0,0 l/m 0 min 0 min 0 W/m 3,2 km/h (1 Bft) 95,74 %
16.10.2022 23:42 15,7 C 15,0 C 11,1 C 97 % 1017,4 hPa 0,0 l/m 0 min 0 min 0 W/m 6,4 km/h (2 Bft) 97,87 %
16.10.2022 23:44 15,7 C 15,0 C 11,1 C 97 % 1017,4 hPa 0,0 l/m 0 min 0 min 0 W/m 3,2 km/h (1 Bft) 93,48 %
16.10.2022 23:46 15,7 C 15,0 C 11,1 C 97 % 1017,4 hPa 0,0 l/m 0 min 0 min 0 W/m 3,2 km/h (1 Bft) 97,87 %
16.10.2022 23:48 15,7 C 15,0 C 11,1 C 97 % 1017,4 hPa 0,0 l/m 0 min 0 min 0 W/m 3,2 km/h (1 Bft) 95,74 %
16.10.2022 23:50 15,7 C 15,0 C 11,1 C 97 % 1017,4 hPa 0,0 l/m 0 min 0 min 0 W/m 3,2 km/h (1 Bft) 97,87 %
16.10.2022 23:52 15,7 C 15,0 C 11,1 C 97 % 1017,4 hPa 0,0 l/m 0 min 0 min 0 W/m 6,4 km/h (2 Bft) 97,87 %
16.10.2022 23:54 15,7 C 15,0 C 11,1 C 97 % 1017,3 hPa 0,0 l/m 0 min 0 min 0 W/m 0,0 km/h (0 Bft) 93,62 %
16.10.2022 23:56 15,7 C 15,0 C 11,1 C 97 % 1017,3 hPa 0,0 l/m 0 min 0 min 0 W/m 3,2 km/h (1 Bft) 97,83 %
16.10.2022 23:58 15,7 C 14,4 C 11,1 C 97 % 1017,3 hPa 0,0 l/m 0 min 0 min 0 W/m 3,2 km/h (1 Bft) 97,87 %
_ Min-Zeit 08:02 05:58 06:28 15:10 00:02 - - - - 00:56 04:20
Minimum _ 12,2 C 11,7 C 9,4 C 69 % 1011,0 hPa - - - - 0,0 km/h (0 Bft) 52,27 %
_ Max-Zeit 14:52 11:38 11:46 00:00 20:54 09:06 10:50 16:18 14:08 11:22 00:46
Maximum _ 19,4 C 26,1 C 19,4 C 97 % 1018,0 hPa 0,2 l/m 2 min 2 min 636 W/m 25,7 km/h
S-SO (4 Bft)
100,00 %
Durchschnitt _ 15,2 C 14,7 C 11,5 C 90 % 1014,8 hPa #1,2 l/m #2:20 h #42 min. 131 W/m 5,7 km/h (1 Bft) 97,24 %
© 2022 W. Hausmann